Time,TemperatureF,DewpointF,PressureIn,WindDirection,WindDirectionDegrees,WindSpeedMPH,WindSpeedGustMPH,Humidity,HourlyPrecipIn,Conditions,Clouds,dailyrainin,SoftwareType,DateUTC
2013-07-09 00:00:00,52.8,29.8,29.90,NNW,335,0.0,31.0,41,0.00,,---,0.00,VWS V12.07,2013-07-09 07:00:00,
2013-07-09 00:01:00,52.6,29.6,29.90,NNW,335,0.0,31.0,41,0.00,,---,0.00,VWS V12.07,2013-07-09 07:01:00,
2013-07-09 00:04:00,52.5,29.5,29.90,NNW,335,0.0,31.0,41,0.00,,---,0.00,VWS V12.07,2013-07-09 07:04:00,
2013-07-09 00:05:00,52.3,29.3,29.90,NNW,335,0.0,31.0,41,0.00,,---,0.00,VWS V12.07,2013-07-09 07:05:00,
2013-07-09 00:06:00,52.3,29.3,29.90,NNW,335,0.0,31.0,41,0.00,,---,0.00,VWS V12.07,2013-07-09 07:06:00,
2013-07-09 00:10:00,52.0,29.0,29.90,NNW,335,1.0,31.0,41,0.00,,---,0.00,VWS V12.07,2013-07-09 07:10:00,
2013-07-09 00:11:00,52.0,29.6,29.90,NNW,335,0.0,31.0,42,0.00,,---,0.00,VWS V12.07,2013-07-09 07:11:00,
2013-07-09 00:12:00,51.9,29.5,29.90,NNW,335,0.0,31.0,42,0.00,,---,0.00,VWS V12.07,2013-07-09 07:12:00,
2013-07-09 00:15:00,51.6,29.3,29.87,NNW,335,0.0,31.0,42,0.00,,---,0.00,VWS V12.07,2013-07-09 07:15:00,
2013-07-09 00:16:00,51.6,29.3,29.87,NNW,335,0.0,31.0,42,0.00,,---,0.00,VWS V12.07,2013-07-09 07:16:00,
2013-07-09 00:18:00,51.6,29.3,29.87,NNW,335,0.0,31.0,42,0.00,,---,0.00,VWS V12.07,2013-07-09 07:18:00,
2013-07-09 00:19:00,51.4,29.1,29.87,NNW,335,0.0,31.0,42,0.00,,---,0.00,VWS V12.07,2013-07-09 07:19:00,
2013-07-09 00:20:00,51.4,29.1,29.87,NNW,335,0.0,31.0,42,0.00,,---,0.00,VWS V12.07,2013-07-09 07:20:00,
2013-07-09 00:21:00,51.4,29.1,29.87,NNW,335,0.0,31.0,42,0.00,,---,0.00,VWS V12.07,2013-07-09 07:21:00,
2013-07-09 00:23:00,51.3,29.0,29.87,NNW,335,0.0,31.0,42,0.00,,---,0.00,VWS V12.07,2013-07-09 07:23:00,
2013-07-09 00:24:00,51.3,29.0,29.87,NNW,335,0.0,31.0,42,0.00,,---,0.00,VWS V12.07,2013-07-09 07:24:00,
2013-07-09 00:26:00,51.3,29.0,29.87,NNW,335,0.0,31.0,42,0.00,,---,0.00,VWS V12.07,2013-07-09 07:26:00,
2013-07-09 00:27:00,51.1,28.8,29.87,NNW,335,0.0,31.0,42,0.00,,---,0.00,VWS V12.07,2013-07-09 07:27:00,
2013-07-09 00:29:00,51.1,29.4,29.87,NNW,335,0.0,31.0,43,0.00,,---,0.00,VWS V12.07,2013-07-09 07:29:00,
2013-07-09 00:31:00,50.8,29.1,29.88,NNW,335,0.0,31.0,43,0.00,,---,0.00,VWS V12.07,2013-07-09 07:31:00,
2013-07-09 00:32:00,50.8,29.1,29.88,NNW,335,0.0,31.0,43,0.00,,---,0.00,VWS V12.07,2013-07-09 07:32:00,
2013-07-09 00:34:00,50.7,28.5,29.88,NNW,335,0.0,31.0,42,0.00,,---,0.00,VWS V12.07,2013-07-09 07:34:00,
2013-07-09 00:35:00,50.7,28.5,29.88,NNW,335,0.0,31.0,42,0.00,,---,0.00,VWS V12.07,2013-07-09 07:35:00,
2013-07-09 00:36:00,50.7,28.5,29.88,NNW,335,0.0,31.0,42,0.00,,---,0.00,VWS V12.07,2013-07-09 07:36:00,
2013-07-09 00:37:00,50.7,29.0,29.88,NNW,335,0.0,31.0,43,0.00,,---,0.00,VWS V12.07,2013-07-09 07:37:00,
2013-07-09 00:38:00,50.7,29.0,29.88,NNW,335,0.0,31.0,43,0.00,,---,0.00,VWS V12.07,2013-07-09 07:38:00,
2013-07-09 00:39:00,50.5,28.9,29.88,NNW,335,0.0,31.0,43,0.00,,---,0.00,VWS V12.07,2013-07-09 07:39:00,
2013-07-09 00:40:00,50.5,28.9,29.88,NNW,335,0.0,31.0,43,0.00,,---,0.00,VWS V12.07,2013-07-09 07:40:00,
2013-07-09 00:42:00,50.4,28.8,29.88,NNW,335,0.0,31.0,43,0.00,,---,0.00,VWS V12.07,2013-07-09 07:42:00,
2013-07-09 00:43:00,50.4,28.8,29.88,NNW,335,0.0,31.0,43,0.00,,---,0.00,VWS V12.07,2013-07-09 07:43:00,
2013-07-09 00:45:00,50.2,28.6,29.88,NNW,335,0.0,31.0,43,0.00,,---,0.00,VWS V12.07,2013-07-09 07:45:00,
2013-07-09 00:47:00,50.2,28.6,29.88,NNW,335,0.0,31.0,43,0.00,,---,0.00,VWS V12.07,2013-07-09 07:47:00,
2013-07-09 00:48:00,50.2,28.6,29.88,NNW,335,0.0,31.0,43,0.00,,---,0.00,VWS V12.07,2013-07-09 07:48:00,
2013-07-09 00:49:00,50.2,28.6,29.88,NNW,335,0.0,31.0,43,0.00,,---,0.00,VWS V12.07,2013-07-09 07:49:00,
2013-07-09 00:52:00,49.9,28.3,29.88,NNW,335,0.0,31.0,43,0.00,,---,0.00,VWS V12.07,2013-07-09 07:52:00,
2013-07-09 00:53:00,49.9,28.3,29.88,NNW,335,0.0,31.0,43,0.00,,---,0.00,VWS V12.07,2013-07-09 07:53:00,
2013-07-09 00:54:00,49.9,28.3,29.88,NNW,335,0.0,31.0,43,0.00,,---,0.00,VWS V12.07,2013-07-09 07:54:00,
2013-07-09 00:55:00,49.8,28.2,29.88,NNW,335,0.0,31.0,43,0.00,,---,0.00,VWS V12.07,2013-07-09 07:55:00,
2013-07-09 00:58:00,49.8,28.8,29.88,NNW,335,0.0,31.0,44,0.00,,---,0.00,VWS V12.07,2013-07-09 07:58:00,
2013-07-09 00:59:00,49.8,28.2,29.88,NNW,335,0.0,31.0,43,0.00,,---,0.00,VWS V12.07,2013-07-09 07:59:00,
2013-07-09 01:00:00,49.6,28.0,29.88,NNW,335,0.0,31.0,43,0.00,,---,0.00,VWS V12.07,2013-07-09 08:00:00,
2013-07-09 01:03:00,49.6,28.6,29.88,NNW,335,0.0,31.0,44,0.00,,---,0.00,VWS V12.07,2013-07-09 08:03:00,
2013-07-09 01:04:00,49.6,34.1,29.88,NNW,335,0.0,31.0,55,0.00,,---,0.00,VWS V12.07,2013-07-09 08:04:00,
2013-07-09 01:06:00,49.6,34.1,29.88,NNW,335,0.0,31.0,55,0.00,,---,0.00,VWS V12.07,2013-07-09 08:06:00,
2013-07-09 01:08:00,49.6,34.1,29.88,NNW,335,0.0,31.0,55,0.00,,---,0.00,VWS V12.07,2013-07-09 08:08:00,
2013-07-09 01:09:00,49.6,34.1,29.88,NNW,335,0.0,31.0,55,0.00,,---,0.00,VWS V12.07,2013-07-09 08:09:00,
2013-07-09 01:10:00,49.5,33.6,29.88,NNW,335,0.0,31.0,54,0.00,,---,0.00,VWS V12.07,2013-07-09 08:10:00,
2013-07-09 01:11:00,49.5,33.6,29.88,NNW,335,0.0,31.0,54,0.00,,---,0.00,VWS V12.07,2013-07-09 08:11:00,
2013-07-09 01:14:00,49.4,33.9,29.88,NNW,335,0.0,31.0,55,0.00,,---,0.00,VWS V12.07,2013-07-09 08:14:00,
2013-07-09 01:15:00,49.4,33.9,29.87,NNW,335,0.0,31.0,55,0.00,,---,0.00,VWS V12.07,2013-07-09 08:15:00,
2013-07-09 01:16:00,49.4,33.9,29.87,NNW,335,0.0,31.0,55,0.00,,---,0.00,VWS V12.07,2013-07-09 08:16:00,
2013-07-09 01:19:00,49.1,34.1,29.87,NNW,335,0.0,31.0,56,0.00,,---,0.00,VWS V12.07,2013-07-09 08:19:00,
2013-07-09 01:20:00,49.1,34.1,29.87,NNW,335,0.0,31.0,56,0.00,,---,0.00,VWS V12.07,2013-07-09 08:20:00,
2013-07-09 01:21:00,48.9,33.9,29.87,NNW,335,0.0,31.0,56,0.00,,---,0.00,VWS V12.07,2013-07-09 08:21:00,
2013-07-09 01:24:00,48.9,33.9,29.87,NNW,335,0.0,31.0,56,0.00,,---,0.00,VWS V12.07,2013-07-09 08:24:00,
2013-07-09 01:25:00,48.9,33.9,29.87,NNW,335,0.0,31.0,56,0.00,,---,0.00,VWS V12.07,2013-07-09 08:25:00,
2013-07-09 01:26:00,48.9,33.9,29.87,NNW,335,0.0,31.0,56,0.00,,---,0.00,VWS V12.07,2013-07-09 08:26:00,
2013-07-09 01:27:00,48.9,33.9,29.87,NNW,335,0.0,31.0,56,0.00,,---,0.00,VWS V12.07,2013-07-09 08:27:00,
2013-07-09 01:29:00,48.9,33.9,29.87,NNW,335,0.0,31.0,56,0.00,,---,0.00,VWS V12.07,2013-07-09 08:29:00,
2013-07-09 01:30:00,48.9,33.9,29.87,NNW,335,0.0,31.0,56,0.00,,---,0.00,VWS V12.07,2013-07-09 08:30:00,
2013-07-09 01:31:00,48.9,33.9,29.87,NNW,335,0.0,31.0,56,0.00,,---,0.00,VWS V12.07,2013-07-09 08:31:00,
2013-07-09 01:32:00,48.9,33.9,29.87,NNW,335,0.0,31.0,56,0.00,,---,0.00,VWS V12.07,2013-07-09 08:32:00,
2013-07-09 01:35:00,48.6,34.1,29.87,NNW,335,0.0,31.0,57,0.00,,---,0.00,VWS V12.07,2013-07-09 08:35:00,
2013-07-09 01:36:00,48.6,34.1,29.87,NNW,335,0.0,31.0,57,0.00,,---,0.00,VWS V12.07,2013-07-09 08:36:00,
2013-07-09 01:37:00,48.5,34.0,29.87,NNW,335,0.0,31.0,57,0.00,,---,0.00,VWS V12.07,2013-07-09 08:37:00,
2013-07-09 01:40:00,48.5,34.0,29.87,NNW,335,0.0,31.0,57,0.00,,---,0.00,VWS V12.07,2013-07-09 08:40:00,
2013-07-09 01:41:00,48.5,34.0,29.87,NNW,335,0.0,31.0,57,0.00,,---,0.00,VWS V12.07,2013-07-09 08:41:00,
2013-07-09 01:42:00,48.5,34.0,29.87,NNW,335,0.0,31.0,57,0.00,,---,0.00,VWS V12.07,2013-07-09 08:42:00,
2013-07-09 01:43:00,48.3,33.8,29.87,NNW,335,0.0,31.0,57,0.00,,---,0.00,VWS V12.07,2013-07-09 08:43:00,
2013-07-09 01:45:00,48.2,34.1,29.88,NNW,335,0.0,31.0,58,0.00,,---,0.00,VWS V12.07,2013-07-09 08:45:00,
2013-07-09 01:46:00,48.2,34.1,29.88,NNW,335,0.0,31.0,58,0.00,,---,0.00,VWS V12.07,2013-07-09 08:46:00,
2013-07-09 01:47:00,48.2,34.1,29.88,NNW,335,0.0,31.0,58,0.00,,---,0.00,VWS V12.07,2013-07-09 08:47:00,
2013-07-09 01:48:00,48.2,34.6,29.88,NNW,335,0.0,31.0,59,0.00,,---,0.00,VWS V12.07,2013-07-09 08:48:00,
2013-07-09 01:51:00,48.2,34.1,29.88,NNW,335,0.0,31.0,58,0.00,,---,0.00,VWS V12.07,2013-07-09 08:51:00,
2013-07-09 01:53:00,48.2,34.1,29.88,NNW,335,0.0,31.0,58,0.00,,---,0.00,VWS V12.07,2013-07-09 08:53:00,
2013-07-09 01:56:00,48.0,34.8,29.88,NNW,335,1.0,31.0,60,0.00,,---,0.00,VWS V12.07,2013-07-09 08:56:00,
2013-07-09 01:57:00,48.0,35.2,29.88,NNW,335,0.0,31.0,61,0.00,,---,0.00,VWS V12.07,2013-07-09 08:57:00,
2013-07-09 01:58:00,48.0,34.8,29.88,NNW,335,0.0,31.0,60,0.00,,---,0.00,VWS V12.07,2013-07-09 08:58:00,
2013-07-09 02:01:00,47.9,34.7,29.88,NNW,335,0.0,31.0,60,0.00,,---,0.00,VWS V12.07,2013-07-09 09:01:00,
2013-07-09 02:02:00,47.9,34.7,29.88,NNW,335,0.0,31.0,60,0.00,,---,0.00,VWS V12.07,2013-07-09 09:02:00,
2013-07-09 02:03:00,47.9,34.7,29.88,NNW,335,0.0,31.0,60,0.00,,---,0.00,VWS V12.07,2013-07-09 09:03:00,
2013-07-09 02:07:00,47.7,34.5,29.88,NNW,335,0.0,31.0,60,0.00,,---,0.00,VWS V12.07,2013-07-09 09:07:00,
2013-07-09 02:08:00,47.6,34.8,29.88,NNW,335,0.0,31.0,61,0.00,,---,0.00,VWS V12.07,2013-07-09 09:08:00,
2013-07-09 02:09:00,47.6,34.8,29.88,NNW,335,0.0,31.0,61,0.00,,---,0.00,VWS V12.07,2013-07-09 09:09:00,
2013-07-09 02:12:00,47.4,35.0,29.88,NNW,335,0.0,31.0,62,0.00,,---,0.00,VWS V12.07,2013-07-09 09:12:00,
2013-07-09 02:14:00,47.4,34.6,29.88,NNW,335,0.0,31.0,61,0.00,,---,0.00,VWS V12.07,2013-07-09 09:14:00,
2013-07-09 02:17:00,47.3,35.0,29.89,NNW,335,0.0,31.0,62,0.00,,---,0.00,VWS V12.07,2013-07-09 09:17:00,
2013-07-09 02:18:00,47.3,35.0,29.89,NNW,335,0.0,31.0,62,0.00,,---,0.00,VWS V12.07,2013-07-09 09:18:00,
2013-07-09 02:19:00,47.3,35.0,29.89,NNW,335,0.0,31.0,62,0.00,,---,0.00,VWS V12.07,2013-07-09 09:19:00,
2013-07-09 02:20:00,47.1,34.8,29.89,NNW,335,0.0,31.0,62,0.00,,---,0.00,VWS V12.07,2013-07-09 09:20:00,
2013-07-09 02:23:00,47.1,35.2,29.89,NNW,335,0.0,31.0,63,0.00,,---,0.00,VWS V12.07,2013-07-09 09:23:00,
2013-07-09 02:24:00,47.1,35.2,29.89,NNW,335,0.0,31.0,63,0.00,,---,0.00,VWS V12.07,2013-07-09 09:24:00,
2013-07-09 02:25:00,47.0,35.1,29.89,NNW,335,0.0,31.0,63,0.00,,---,0.00,VWS V12.07,2013-07-09 09:25:00,
2013-07-09 02:28:00,46.8,35.3,29.89,NNW,335,0.0,31.0,64,0.00,,---,0.00,VWS V12.07,2013-07-09 09:28:00,
2013-07-09 02:29:00,46.8,35.3,29.89,NNW,335,0.0,31.0,64,0.00,,---,0.00,VWS V12.07,2013-07-09 09:29:00,
2013-07-09 02:30:00,46.8,35.3,29.89,NNW,335,0.0,31.0,64,0.00,,---,0.00,VWS V12.07,2013-07-09 09:30:00,
2013-07-09 02:34:00,46.7,34.8,29.89,NNW,335,0.0,31.0,63,0.00,,---,0.00,VWS V12.07,2013-07-09 09:34:00,
2013-07-09 02:35:00,46.7,34.8,29.89,NNW,335,0.0,31.0,63,0.00,,---,0.00,VWS V12.07,2013-07-09 09:35:00,
2013-07-09 02:36:00,46.7,35.6,29.89,NNW,335,0.0,31.0,65,0.00,,---,0.00,VWS V12.07,2013-07-09 09:36:00,
2013-07-09 02:39:00,46.5,35.0,29.89,NNW,335,0.0,31.0,64,0.00,,---,0.00,VWS V12.07,2013-07-09 09:39:00,
2013-07-09 02:40:00,46.5,35.0,29.89,NNW,335,0.0,31.0,64,0.00,,---,0.00,VWS V12.07,2013-07-09 09:40:00,
2013-07-09 02:41:00,46.5,35.4,29.89,NNW,335,0.0,31.0,65,0.00,,---,0.00,VWS V12.07,2013-07-09 09:41:00,
2013-07-09 02:45:00,46.4,35.3,29.90,NNW,335,0.0,31.0,65,0.00,,---,0.00,VWS V12.07,2013-07-09 09:45:00,
2013-07-09 02:46:00,46.4,35.3,29.90,NNW,335,0.0,31.0,65,0.00,,---,0.00,VWS V12.07,2013-07-09 09:46:00,
2013-07-09 02:50:00,46.2,35.5,29.90,NNW,335,0.0,31.0,66,0.00,,---,0.00,VWS V12.07,2013-07-09 09:50:00,
2013-07-09 02:51:00,46.2,35.5,29.90,NNW,335,0.0,31.0,66,0.00,,---,0.00,VWS V12.07,2013-07-09 09:51:00,
2013-07-09 02:52:00,46.2,35.5,29.90,NNW,335,0.0,31.0,66,0.00,,---,0.00,VWS V12.07,2013-07-09 09:52:00,
2013-07-09 02:55:00,46.1,35.4,29.90,NNW,335,0.0,31.0,66,0.00,,---,0.00,VWS V12.07,2013-07-09 09:55:00,
2013-07-09 02:56:00,46.1,35.4,29.90,NNW,335,0.0,31.0,66,0.00,,---,0.00,VWS V12.07,2013-07-09 09:56:00,
2013-07-09 02:57:00,46.1,35.4,29.90,NNW,335,0.0,31.0,66,0.00,,---,0.00,VWS V12.07,2013-07-09 09:57:00,
2013-07-09 03:00:00,46.0,35.3,29.90,NNW,335,0.0,31.0,66,0.00,,---,0.00,VWS V12.07,2013-07-09 10:00:00,
2013-07-09 03:01:00,46.0,35.3,29.90,NNW,335,0.0,31.0,66,0.00,,---,0.00,VWS V12.07,2013-07-09 10:01:00,
2013-07-09 03:02:00,46.0,35.7,29.90,NNW,335,0.0,31.0,67,0.00,,---,0.00,VWS V12.07,2013-07-09 10:02:00,
2013-07-09 03:03:00,46.0,35.7,29.90,NNW,335,0.0,31.0,67,0.00,,---,0.00,VWS V12.07,2013-07-09 10:03:00,
2013-07-09 03:06:00,45.8,35.5,29.90,NNW,335,0.0,31.0,67,0.00,,---,0.00,VWS V12.07,2013-07-09 10:06:00,
2013-07-09 03:07:00,45.8,35.5,29.90,NNW,335,0.0,31.0,67,0.00,,---,0.00,VWS V12.07,2013-07-09 10:07:00,
2013-07-09 03:08:00,45.8,35.8,29.90,NNW,335,0.0,31.0,68,0.00,,---,0.00,VWS V12.07,2013-07-09 10:08:00,
2013-07-09 03:12:00,45.7,35.8,29.90,NNW,335,0.0,31.0,68,0.00,,---,0.00,VWS V12.07,2013-07-09 10:12:00,
2013-07-09 03:13:00,45.7,35.8,29.90,NNW,335,0.0,31.0,68,0.00,,---,0.00,VWS V12.07,2013-07-09 10:13:00,
2013-07-09 03:17:00,45.7,35.8,29.90,NNW,335,0.0,31.0,68,0.00,,---,0.00,VWS V12.07,2013-07-09 10:17:00,
2013-07-09 03:18:00,45.7,35.8,29.90,NNW,335,0.0,31.0,68,0.00,,---,0.00,VWS V12.07,2013-07-09 10:18:00,
2013-07-09 03:19:00,45.7,35.8,29.90,NNW,335,0.0,31.0,68,0.00,,---,0.00,VWS V12.07,2013-07-09 10:19:00,
2013-07-09 03:22:00,45.5,35.6,29.90,NNW,335,0.0,31.0,68,0.00,,---,0.00,VWS V12.07,2013-07-09 10:22:00,
2013-07-09 03:23:00,45.5,35.6,29.90,NNW,335,0.0,31.0,68,0.00,,---,0.00,VWS V12.07,2013-07-09 10:23:00,
2013-07-09 03:24:00,45.5,35.6,29.90,NNW,335,0.0,31.0,68,0.00,,---,0.00,VWS V12.07,2013-07-09 10:24:00,
2013-07-09 03:27:00,45.4,35.8,29.90,NNW,335,0.0,31.0,69,0.00,,---,0.00,VWS V12.07,2013-07-09 10:27:00,
2013-07-09 03:28:00,45.4,36.2,29.90,NNW,335,0.0,31.0,70,0.00,,---,0.00,VWS V12.07,2013-07-09 10:28:00,
2013-07-09 03:29:00,45.4,36.2,29.90,NNW,335,0.0,31.0,70,0.00,,---,0.00,VWS V12.07,2013-07-09 10:29:00,
2013-07-09 03:33:00,45.2,36.0,29.90,NNW,335,0.0,31.0,70,0.00,,---,0.00,VWS V12.07,2013-07-09 10:33:00,
2013-07-09 03:34:00,45.2,28.6,29.90,NNW,335,0.0,31.0,52,0.00,,---,0.00,VWS V12.07,2013-07-09 10:34:00,
2013-07-09 03:38:00,45.2,29.1,29.90,NNW,335,0.0,31.0,53,0.00,,---,0.00,VWS V12.07,2013-07-09 10:38:00,
2013-07-09 03:39:00,45.2,29.1,29.90,NNW,335,0.0,31.0,53,0.00,,---,0.00,VWS V12.07,2013-07-09 10:39:00,
2013-07-09 03:43:00,45.2,28.6,29.90,NNW,335,0.0,31.0,52,0.00,,---,0.00,VWS V12.07,2013-07-09 10:43:00,
2013-07-09 03:44:00,45.2,28.6,29.90,NNW,335,0.0,31.0,52,0.00,,---,0.00,VWS V12.07,2013-07-09 10:44:00,
2013-07-09 03:45:00,45.2,28.6,29.90,NNW,335,0.0,31.0,52,0.00,,---,0.00,VWS V12.07,2013-07-09 10:45:00,
2013-07-09 03:48:00,45.2,29.1,29.90,NNW,335,0.0,31.0,53,0.00,,---,0.00,VWS V12.07,2013-07-09 10:48:00,
2013-07-09 03:49:00,45.2,29.1,29.90,NNW,335,0.0,31.0,53,0.00,,---,0.00,VWS V12.07,2013-07-09 10:49:00,
2013-07-09 03:50:00,45.2,29.1,29.90,NNW,335,0.0,31.0,53,0.00,,---,0.00,VWS V12.07,2013-07-09 10:50:00,
2013-07-09 03:51:00,45.2,29.1,29.90,NNW,335,0.0,31.0,53,0.00,,---,0.00,VWS V12.07,2013-07-09 10:51:00,
2013-07-09 03:53:00,45.4,28.8,29.90,NNW,335,0.0,31.0,52,0.00,,---,0.00,VWS V12.07,2013-07-09 10:53:00,
2013-07-09 03:54:00,45.4,28.8,29.90,NNW,335,0.0,31.0,52,0.00,,---,0.00,VWS V12.07,2013-07-09 10:54:00,
2013-07-09 03:55:00,45.4,28.8,29.90,NNW,335,0.0,31.0,52,0.00,,---,0.00,VWS V12.07,2013-07-09 10:55:00,
2013-07-09 03:56:00,45.4,28.8,29.90,NNW,335,0.0,31.0,52,0.00,,---,0.00,VWS V12.07,2013-07-09 10:56:00,
2013-07-09 03:59:00,45.4,28.8,29.90,NNW,335,0.0,31.0,52,0.00,,---,0.00,VWS V12.07,2013-07-09 10:59:00,
2013-07-09 04:00:00,45.2,28.6,29.90,NNW,335,0.0,31.0,52,0.00,,---,0.00,VWS V12.07,2013-07-09 11:00:00,
2013-07-09 04:01:00,45.2,28.6,29.90,NNW,335,0.0,31.0,52,0.00,,---,0.00,VWS V12.07,2013-07-09 11:01:00,
2013-07-09 04:04:00,45.1,28.5,29.90,NNW,335,0.0,31.0,52,0.00,,---,0.00,VWS V12.07,2013-07-09 11:04:00,
2013-07-09 04:06:00,45.1,29.0,29.90,NNW,335,0.0,31.0,53,0.00,,---,0.00,VWS V12.07,2013-07-09 11:06:00,
2013-07-09 04:10:00,44.9,28.8,29.90,NNW,335,0.0,31.0,53,0.00,,---,0.00,VWS V12.07,2013-07-09 11:10:00,
2013-07-09 04:11:00,44.9,28.8,29.90,NNW,335,0.0,31.0,53,0.00,,---,0.00,VWS V12.07,2013-07-09 11:11:00,
2013-07-09 04:12:00,44.9,28.8,29.90,NNW,335,0.0,31.0,53,0.00,,---,0.00,VWS V12.07,2013-07-09 11:12:00,
2013-07-09 04:15:00,44.8,28.7,29.91,NNW,335,0.0,31.0,53,0.00,,---,0.00,VWS V12.07,2013-07-09 11:15:00,
2013-07-09 04:17:00,44.6,28.5,29.91,NNW,335,0.0,31.0,53,0.00,,---,0.00,VWS V12.07,2013-07-09 11:17:00,
2013-07-09 04:20:00,44.5,28.5,29.91,NNW,335,0.0,31.0,53,0.00,,---,0.00,VWS V12.07,2013-07-09 11:20:00,
2013-07-09 04:21:00,44.5,28.5,29.91,NNW,335,0.0,31.0,53,0.00,,---,0.00,VWS V12.07,2013-07-09 11:21:00,
2013-07-09 04:22:00,44.5,28.5,29.91,NNW,335,0.0,31.0,53,0.00,,---,0.00,VWS V12.07,2013-07-09 11:22:00,
2013-07-09 04:23:00,44.5,28.5,29.91,NNW,335,0.0,31.0,53,0.00,,---,0.00,VWS V12.07,2013-07-09 11:23:00,
2013-07-09 04:26:00,44.5,35.7,29.91,NNW,335,0.0,31.0,71,0.00,,---,0.00,VWS V12.07,2013-07-09 11:26:00,
2013-07-09 04:28:00,44.5,36.0,29.91,NNW,335,0.0,31.0,72,0.00,,---,0.00,VWS V12.07,2013-07-09 11:28:00,
2013-07-09 04:31:00,44.3,35.9,29.90,NNW,335,0.0,31.0,72,0.00,,---,0.00,VWS V12.07,2013-07-09 11:31:00,
2013-07-09 04:32:00,44.3,35.9,29.90,NNW,335,0.0,31.0,72,0.00,,---,0.00,VWS V12.07,2013-07-09 11:32:00,
2013-07-09 04:33:00,44.3,35.9,29.90,NNW,335,0.0,31.0,72,0.00,,---,0.00,VWS V12.07,2013-07-09 11:33:00,
2013-07-09 04:34:00,44.3,35.5,29.90,NNW,335,0.0,31.0,71,0.00,,---,0.00,VWS V12.07,2013-07-09 11:34:00,
2013-07-09 04:36:00,44.3,35.9,29.90,NNW,335,0.0,31.0,72,0.00,,---,0.00,VWS V12.07,2013-07-09 11:36:00,
2013-07-09 04:37:00,44.3,35.9,29.90,NNW,335,0.0,31.0,72,0.00,,---,0.00,VWS V12.07,2013-07-09 11:37:00,
2013-07-09 04:38:00,44.3,35.9,29.90,NNW,335,0.0,31.0,72,0.00,,---,0.00,VWS V12.07,2013-07-09 11:38:00,
2013-07-09 04:39:00,44.3,36.2,29.90,NNW,335,0.0,31.0,73,0.00,,---,0.00,VWS V12.07,2013-07-09 11:39:00,
2013-07-09 04:41:00,44.3,36.2,29.90,NNW,335,0.0,31.0,73,0.00,,---,0.00,VWS V12.07,2013-07-09 11:41:00,
2013-07-09 04:42:00,44.3,36.2,29.90,NNW,335,0.0,31.0,73,0.00,,---,0.00,VWS V12.07,2013-07-09 11:42:00,
2013-07-09 04:44:00,44.3,36.2,29.90,NNW,335,0.0,31.0,73,0.00,,---,0.00,VWS V12.07,2013-07-09 11:44:00,
2013-07-09 04:46:00,44.3,35.9,29.90,NNW,335,0.0,31.0,72,0.00,,---,0.00,VWS V12.07,2013-07-09 11:46:00,
2013-07-09 04:48:00,44.2,36.1,29.90,NNW,335,0.0,31.0,73,0.00,,---,0.00,VWS V12.07,2013-07-09 11:48:00,
2013-07-09 04:49:00,44.2,36.1,29.90,NNW,335,0.0,31.0,73,0.00,,---,0.00,VWS V12.07,2013-07-09 11:49:00,
2013-07-09 04:52:00,44.2,36.5,29.90,NNW,335,0.0,31.0,74,0.00,,---,0.00,VWS V12.07,2013-07-09 11:52:00,
2013-07-09 04:53:00,44.2,35.8,29.90,NNW,335,0.0,31.0,72,0.00,,---,0.00,VWS V12.07,2013-07-09 11:53:00,
2013-07-09 04:54:00,44.2,35.8,29.90,NNW,335,0.0,31.0,72,0.00,,---,0.00,VWS V12.07,2013-07-09 11:54:00,
2013-07-09 04:55:00,44.2,35.8,29.90,NNW,335,0.0,31.0,72,0.00,,---,0.00,VWS V12.07,2013-07-09 11:55:00,
2013-07-09 04:57:00,44.2,36.1,29.90,NNW,335,0.0,31.0,73,0.00,,---,0.00,VWS V12.07,2013-07-09 11:57:00,
2013-07-09 04:59:00,44.2,36.1,29.90,NNW,335,0.0,31.0,73,0.00,,---,0.00,VWS V12.07,2013-07-09 11:59:00,
2013-07-09 05:00:00,44.2,36.1,29.91,NNW,335,0.0,31.0,73,0.00,,---,0.00,VWS V12.07,2013-07-09 12:00:00,
2013-07-09 05:02:00,44.2,36.5,29.91,NNW,335,0.0,31.0,74,0.00,,---,0.00,VWS V12.07,2013-07-09 12:02:00,
2013-07-09 05:04:00,44.1,36.4,29.91,NNW,335,0.0,31.0,74,0.00,,---,0.00,VWS V12.07,2013-07-09 12:04:00,
2013-07-09 05:05:00,44.1,36.4,29.91,NNW,335,0.0,31.0,74,0.00,,---,0.00,VWS V12.07,2013-07-09 12:05:00,
2013-07-09 05:07:00,44.1,36.7,29.91,NNW,335,0.0,31.0,75,0.00,,---,0.00,VWS V12.07,2013-07-09 12:07:00,
2013-07-09 05:09:00,44.1,36.7,29.91,NNW,335,0.0,31.0,75,0.00,,---,0.00,VWS V12.07,2013-07-09 12:09:00,
2013-07-09 05:10:00,44.1,36.7,29.91,NNW,335,0.0,31.0,75,0.00,,---,0.00,VWS V12.07,2013-07-09 12:10:00,
2013-07-09 05:13:00,43.9,36.2,29.91,NNW,335,0.0,31.0,74,0.00,,---,0.00,VWS V12.07,2013-07-09 12:13:00,
2013-07-09 05:14:00,43.9,35.8,29.90,NNW,335,0.0,31.0,73,0.00,,---,0.00,VWS V12.07,2013-07-09 12:14:00,
2013-07-09 05:15:00,43.8,35.7,29.90,NNW,335,0.0,31.0,73,0.00,,---,0.00,VWS V12.07,2013-07-09 12:15:00,
2013-07-09 05:18:00,43.8,36.1,29.90,NNW,335,0.0,31.0,74,0.00,,---,0.00,VWS V12.07,2013-07-09 12:18:00,
2013-07-09 05:19:00,43.8,36.1,29.90,NNW,335,0.0,31.0,74,0.00,,---,0.00,VWS V12.07,2013-07-09 12:19:00,
2013-07-09 05:20:00,43.8,36.1,29.90,NNW,335,0.0,31.0,74,0.00,,---,0.00,VWS V12.07,2013-07-09 12:20:00,
2013-07-09 05:21:00,43.8,36.1,29.90,NNW,335,0.0,31.0,74,0.00,,---,0.00,VWS V12.07,2013-07-09 12:21:00,
2013-07-09 05:23:00,43.6,35.9,29.90,NNW,335,0.0,31.0,74,0.00,,---,0.00,VWS V12.07,2013-07-09 12:23:00,
2013-07-09 05:25:00,43.6,35.9,29.90,NNW,335,0.0,31.0,74,0.00,,---,0.00,VWS V12.07,2013-07-09 12:25:00,
2013-07-09 05:26:00,43.6,35.9,29.90,NNW,335,0.0,31.0,74,0.00,,---,0.00,VWS V12.07,2013-07-09 12:26:00,
2013-07-09 05:28:00,43.5,35.8,29.90,NNW,335,0.0,31.0,74,0.00,,---,0.00,VWS V12.07,2013-07-09 12:28:00,
2013-07-09 05:31:00,43.5,36.1,29.90,NNW,335,0.0,31.0,75,0.00,,---,0.00,VWS V12.07,2013-07-09 12:31:00,
2013-07-09 05:34:00,43.6,36.2,29.90,NNW,335,0.0,31.0,75,0.00,,---,0.00,VWS V12.07,2013-07-09 12:34:00,
2013-07-09 05:36:00,43.6,35.9,29.90,NNW,335,0.0,31.0,74,0.00,,---,0.00,VWS V12.07,2013-07-09 12:36:00,
2013-07-09 05:39:00,43.5,36.1,29.90,NNW,335,0.0,31.0,75,0.00,,---,0.00,VWS V12.07,2013-07-09 12:39:00,
2013-07-09 05:40:00,43.5,36.1,29.90,NNW,335,0.0,31.0,75,0.00,,---,0.00,VWS V12.07,2013-07-09 12:40:00,
2013-07-09 05:41:00,43.5,36.1,29.90,NNW,335,0.0,31.0,75,0.00,,---,0.00,VWS V12.07,2013-07-09 12:41:00,
2013-07-09 05:42:00,43.5,36.1,29.90,NNW,335,0.0,31.0,75,0.00,,---,0.00,VWS V12.07,2013-07-09 12:42:00,
2013-07-09 05:44:00,43.5,36.1,29.90,NNW,335,0.0,31.0,75,0.00,,---,0.00,VWS V12.07,2013-07-09 12:44:00,
2013-07-09 05:46:00,43.5,36.1,29.90,NNW,335,0.0,31.0,75,0.00,,---,0.00,VWS V12.07,2013-07-09 12:46:00,
2013-07-09 05:47:00,43.5,36.1,29.90,NNW,335,0.0,31.0,75,0.00,,---,0.00,VWS V12.07,2013-07-09 12:47:00,
2013-07-09 05:48:00,43.5,36.1,29.90,NNW,335,0.0,31.0,75,0.00,,---,0.00,VWS V12.07,2013-07-09 12:48:00,
2013-07-09 05:49:00,43.5,36.1,29.90,NNW,335,0.0,31.0,75,0.00,,---,0.00,VWS V12.07,2013-07-09 12:49:00,
2013-07-09 05:51:00,43.3,35.9,29.90,NNW,335,0.0,31.0,75,0.00,,---,0.00,VWS V12.07,2013-07-09 12:51:00,
2013-07-09 05:52:00,43.3,35.9,29.90,NNW,335,0.0,31.0,75,0.00,,---,0.00,VWS V12.07,2013-07-09 12:52:00,
2013-07-09 05:53:00,43.3,35.9,29.90,NNW,335,0.0,31.0,75,0.00,,---,0.00,VWS V12.07,2013-07-09 12:53:00,
2013-07-09 05:54:00,43.3,36.3,29.90,NNW,335,0.0,31.0,76,0.00,,---,0.00,VWS V12.07,2013-07-09 12:54:00,
2013-07-09 05:56:00,43.3,35.9,29.90,NNW,335,0.0,31.0,75,0.00,,---,0.00,VWS V12.07,2013-07-09 12:56:00,
2013-07-09 05:57:00,43.3,36.3,29.90,NNW,335,0.0,31.0,76,0.00,,---,0.00,VWS V12.07,2013-07-09 12:57:00,
2013-07-09 05:58:00,43.3,36.6,29.90,NNW,335,0.0,31.0,77,0.00,,---,0.00,VWS V12.07,2013-07-09 12:58:00,
2013-07-09 05:59:00,43.3,36.6,29.90,NNW,335,0.0,31.0,77,0.00,,---,0.00,VWS V12.07,2013-07-09 12:59:00,
2013-07-09 06:01:00,43.3,36.6,29.91,NNW,335,0.0,31.0,77,0.00,,---,0.00,VWS V12.07,2013-07-09 13:01:00,
2013-07-09 06:03:00,43.3,36.3,29.91,NNW,335,0.0,31.0,76,0.00,,---,0.00,VWS V12.07,2013-07-09 13:03:00,
2013-07-09 06:04:00,43.3,36.3,29.91,NNW,335,0.0,31.0,76,0.00,,---,0.00,VWS V12.07,2013-07-09 13:04:00,
2013-07-09 06:07:00,43.5,36.5,29.91,NNW,335,0.0,31.0,76,0.00,,---,0.00,VWS V12.07,2013-07-09 13:07:00,
2013-07-09 06:08:00,43.5,36.5,29.91,NNW,335,0.0,31.0,76,0.00,,---,0.00,VWS V12.07,2013-07-09 13:08:00,
2013-07-09 06:09:00,43.5,36.5,29.91,NNW,335,0.0,31.0,76,0.00,,---,0.00,VWS V12.07,2013-07-09 13:09:00,
2013-07-09 06:10:00,43.5,36.5,29.91,NNW,335,0.0,31.0,76,0.00,,---,0.00,VWS V12.07,2013-07-09 13:10:00,
2013-07-09 06:12:00,43.5,36.1,29.91,NNW,335,0.0,31.0,75,0.00,,---,0.00,VWS V12.07,2013-07-09 13:12:00,
2013-07-09 06:13:00,43.5,36.1,29.91,NNW,335,0.0,31.0,75,0.00,,---,0.00,VWS V12.07,2013-07-09 13:13:00,
2013-07-09 06:14:00,43.5,36.1,29.91,NNW,335,0.0,31.0,75,0.00,,---,0.00,VWS V12.07,2013-07-09 13:14:00,
2013-07-09 06:16:00,43.5,36.1,29.91,NNW,335,0.0,31.0,75,0.00,,---,0.00,VWS V12.07,2013-07-09 13:16:00,
2013-07-09 06:18:00,43.5,36.8,29.91,NNW,335,0.0,31.0,77,0.00,,---,0.00,VWS V12.07,2013-07-09 13:18:00,
2013-07-09 06:19:00,43.5,36.8,29.91,NNW,335,0.0,31.0,77,0.00,,---,0.00,VWS V12.07,2013-07-09 13:19:00,
2013-07-09 06:21:00,43.5,36.8,29.91,NNW,335,0.0,31.0,77,0.00,,---,0.00,VWS V12.07,2013-07-09 13:21:00,
2013-07-09 06:23:00,43.6,37.2,29.91,NNW,335,0.0,31.0,78,0.00,,---,0.00,VWS V12.07,2013-07-09 13:23:00,
2013-07-09 06:24:00,43.6,37.2,29.91,NNW,335,0.0,31.0,78,0.00,,---,0.00,VWS V12.07,2013-07-09 13:24:00,
2013-07-09 06:26:00,43.8,37.1,29.91,NNW,335,0.0,31.0,77,0.00,,---,0.00,VWS V12.07,2013-07-09 13:26:00,
2013-07-09 06:28:00,43.8,37.1,29.91,NNW,335,0.0,31.0,77,0.00,,---,0.00,VWS V12.07,2013-07-09 13:28:00,
2013-07-09 06:29:00,43.9,37.2,29.91,NNW,335,0.0,31.0,77,0.00,,---,0.00,VWS V12.07,2013-07-09 13:29:00,
2013-07-09 06:32:00,43.9,37.2,29.91,NNW,335,0.0,31.0,77,0.00,,---,0.00,VWS V12.07,2013-07-09 13:32:00,
2013-07-09 06:33:00,43.9,37.5,29.91,NNW,335,0.0,31.0,78,0.00,,---,0.00,VWS V12.07,2013-07-09 13:33:00,
2013-07-09 06:34:00,44.1,37.7,29.91,NNW,335,0.0,31.0,78,0.00,,---,0.00,VWS V12.07,2013-07-09 13:34:00,
2013-07-09 06:35:00,44.1,37.7,29.91,NNW,335,0.0,31.0,78,0.00,,---,0.00,VWS V12.07,2013-07-09 13:35:00,
2013-07-09 06:37:00,44.2,37.8,29.91,NNW,335,0.0,31.0,78,0.00,,---,0.00,VWS V12.07,2013-07-09 13:37:00,
2013-07-09 06:38:00,44.3,37.6,29.91,NNW,335,0.0,31.0,77,0.00,,---,0.00,VWS V12.07,2013-07-09 13:38:00,
2013-07-09 06:40:00,44.3,37.6,29.91,NNW,335,0.0,31.0,77,0.00,,---,0.00,VWS V12.07,2013-07-09 13:40:00,
2013-07-09 06:41:00,44.5,37.8,29.91,NNW,335,0.0,31.0,77,0.00,,---,0.00,VWS V12.07,2013-07-09 13:41:00,
2013-07-09 06:42:00,44.5,38.1,29.91,NNW,335,0.0,31.0,78,0.00,,---,0.00,VWS V12.07,2013-07-09 13:42:00,
2013-07-09 06:43:00,44.6,38.2,29.91,NNW,335,0.0,31.0,78,0.00,,---,0.00,VWS V12.07,2013-07-09 13:43:00,
2013-07-09 06:45:00,44.6,38.2,29.91,NNW,335,0.0,31.0,78,0.00,,---,0.00,VWS V12.07,2013-07-09 13:45:00,
2013-07-09 06:46:00,44.8,38.0,29.91,NNW,335,0.0,31.0,77,0.00,,---,0.00,VWS V12.07,2013-07-09 13:46:00,
2013-07-09 06:48:00,44.9,38.1,29.91,NNW,335,0.0,31.0,77,0.00,,---,0.00,VWS V12.07,2013-07-09 13:48:00,
2013-07-09 06:50:00,45.1,38.0,29.91,NNW,335,0.0,31.0,76,0.00,,---,0.00,VWS V12.07,2013-07-09 13:50:00,
2013-07-09 06:52:00,45.2,38.1,29.91,NNW,335,0.0,31.0,76,0.00,,---,0.00,VWS V12.07,2013-07-09 13:52:00,
2013-07-09 06:53:00,45.4,38.6,29.91,NNW,335,0.0,31.0,77,0.00,,---,0.00,VWS V12.07,2013-07-09 13:53:00,
2013-07-09 06:55:00,45.5,38.7,29.91,NNW,335,0.0,31.0,77,0.00,,---,0.00,VWS V12.07,2013-07-09 13:55:00,
2013-07-09 06:56:00,45.5,38.7,29.91,NNW,335,0.0,31.0,77,0.00,,---,0.00,VWS V12.07,2013-07-09 13:56:00,
2013-07-09 06:57:00,45.7,38.9,29.91,NNW,335,0.0,31.0,77,0.00,,---,0.00,VWS V12.07,2013-07-09 13:57:00,
2013-07-09 06:58:00,45.7,38.9,29.91,NNW,335,0.0,31.0,77,0.00,,---,0.00,VWS V12.07,2013-07-09 13:58:00,
2013-07-09 07:00:00,46.0,39.2,29.91,NNW,335,0.0,31.0,77,0.00,,---,0.00,VWS V12.07,2013-07-09 14:00:00,
2013-07-09 07:01:00,46.1,39.3,29.91,NNW,335,0.0,31.0,77,0.00,,---,0.00,VWS V12.07,2013-07-09 14:01:00,
2013-07-09 07:02:00,46.2,39.4,29.91,NNW,335,0.0,31.0,77,0.00,,---,0.00,VWS V12.07,2013-07-09 14:02:00,
2013-07-09 07:03:00,46.4,39.6,29.91,NNW,335,0.0,31.0,77,0.00,,---,0.00,VWS V12.07,2013-07-09 14:03:00,
2013-07-09 07:04:00,46.4,39.6,29.91,NNW,335,0.0,31.0,77,0.00,,---,0.00,VWS V12.07,2013-07-09 14:04:00,
2013-07-09 07:06:00,46.7,39.5,29.91,NNW,335,0.0,31.0,76,0.00,,---,0.00,VWS V12.07,2013-07-09 14:06:00,
2013-07-09 07:07:00,46.8,40.0,29.91,NNW,335,0.0,31.0,77,0.00,,---,0.00,VWS V12.07,2013-07-09 14:07:00,
2013-07-09 07:08:00,47.1,40.3,29.91,NNW,335,0.0,31.0,77,0.00,,---,0.00,VWS V12.07,2013-07-09 14:08:00,
2013-07-09 07:09:00,47.3,40.5,29.91,NNW,335,0.0,31.0,77,0.00,,---,0.00,VWS V12.07,2013-07-09 14:09:00,
2013-07-09 07:12:00,47.7,40.5,29.91,NNW,335,0.0,31.0,76,0.00,,---,0.00,VWS V12.07,2013-07-09 14:12:00,
2013-07-09 07:13:00,47.9,40.7,29.91,NNW,335,0.0,31.0,76,0.00,,---,0.00,VWS V12.07,2013-07-09 14:13:00,
2013-07-09 07:14:00,48.0,40.8,29.91,NNW,335,0.0,31.0,76,0.00,,---,0.00,VWS V12.07,2013-07-09 14:14:00,
2013-07-09 07:17:00,48.3,41.1,29.91,NNW,335,0.0,31.0,76,0.00,,---,0.00,VWS V12.07,2013-07-09 14:17:00,
2013-07-09 07:18:00,48.5,41.3,29.91,NNW,335,0.0,31.0,76,0.00,,---,0.00,VWS V12.07,2013-07-09 14:18:00,
2013-07-09 07:19:00,48.6,41.4,29.91,NNW,335,0.0,31.0,76,0.00,,---,0.00,VWS V12.07,2013-07-09 14:19:00,
2013-07-09 07:22:00,49.1,41.9,29.91,NNW,335,0.0,31.0,76,0.00,,---,0.00,VWS V12.07,2013-07-09 14:22:00,
2013-07-09 07:23:00,49.1,41.9,29.91,NNW,335,0.0,31.0,76,0.00,,---,0.00,VWS V12.07,2013-07-09 14:23:00,
2013-07-09 07:25:00,49.4,42.2,29.91,NNW,335,0.0,31.0,76,0.00,,---,0.00,VWS V12.07,2013-07-09 14:25:00,
2013-07-09 07:28:00,49.9,43.0,29.91,NNW,335,0.0,31.0,77,0.00,,---,0.00,VWS V12.07,2013-07-09 14:28:00,
2013-07-09 07:30:00,50.7,43.8,29.90,NNW,335,0.0,31.0,77,0.00,,---,0.00,VWS V12.07,2013-07-09 14:30:00,
2013-07-09 07:31:00,51.0,44.0,29.90,NNW,335,0.0,31.0,77,0.00,,---,0.00,VWS V12.07,2013-07-09 14:31:00,
2013-07-09 07:33:00,51.6,44.6,29.90,NNW,335,0.0,31.0,77,0.00,,---,0.00,VWS V12.07,2013-07-09 14:33:00,
2013-07-09 07:34:00,51.7,44.7,29.90,NNW,335,0.0,31.0,77,0.00,,---,0.00,VWS V12.07,2013-07-09 14:34:00,
2013-07-09 07:35:00,51.9,45.6,29.90,NNW,335,0.0,31.0,79,0.00,,---,0.00,VWS V12.07,2013-07-09 14:35:00,
2013-07-09 07:36:00,52.0,45.7,29.90,NNW,335,0.0,31.0,79,0.00,,---,0.00,VWS V12.07,2013-07-09 14:36:00,
2013-07-09 07:38:00,52.3,45.7,29.90,NNW,335,0.0,31.0,78,0.00,,---,0.00,VWS V12.07,2013-07-09 14:38:00,
2013-07-09 07:39:00,52.3,45.7,29.90,NNW,335,0.0,31.0,78,0.00,,---,0.00,VWS V12.07,2013-07-09 14:39:00,
2013-07-09 07:40:00,52.3,45.7,29.90,NNW,335,0.0,31.0,78,0.00,,---,0.00,VWS V12.07,2013-07-09 14:40:00,
2013-07-09 07:41:00,52.3,45.7,29.90,NNW,335,0.0,31.0,78,0.00,,---,0.00,VWS V12.07,2013-07-09 14:41:00,
2013-07-09 07:44:00,52.3,36.2,29.90,NNW,335,0.0,31.0,54,0.00,,---,0.00,VWS V12.07,2013-07-09 14:44:00,
2013-07-09 07:45:00,52.5,36.3,29.90,NNW,335,0.0,31.0,54,0.00,,---,0.00,VWS V12.07,2013-07-09 14:45:00,
2013-07-09 07:46:00,52.5,36.3,29.90,NNW,335,0.0,31.0,54,0.00,,---,0.00,VWS V12.07,2013-07-09 14:46:00,
2013-07-09 07:49:00,53.2,37.0,29.90,NNW,335,0.0,31.0,54,0.00,,---,0.00,VWS V12.07,2013-07-09 14:49:00,
2013-07-09 07:50:00,53.3,37.1,29.90,NNW,335,0.0,31.0,54,0.00,,---,0.00,VWS V12.07,2013-07-09 14:50:00,
2013-07-09 07:51:00,53.5,37.3,29.90,NNW,335,0.0,31.0,54,0.00,,---,0.00,VWS V12.07,2013-07-09 14:51:00,
2013-07-09 07:52:00,53.6,36.9,29.90,NNW,335,0.0,31.0,53,0.00,,---,0.00,VWS V12.07,2013-07-09 14:52:00,
2013-07-09 07:55:00,53.9,37.2,29.90,NNW,335,0.0,31.0,53,0.00,,---,0.00,VWS V12.07,2013-07-09 14:55:00,
2013-07-09 07:56:00,54.7,37.4,29.90,NNW,335,0.0,31.0,52,0.00,,---,0.00,VWS V12.07,2013-07-09 14:56:00,
2013-07-09 07:57:00,55.3,37.0,29.90,NNW,335,0.0,31.0,50,0.00,,---,0.00,VWS V12.07,2013-07-09 14:57:00,
2013-07-09 08:00:00,56.3,37.9,29.89,NNW,335,5.0,31.0,50,0.00,,---,0.00,VWS V12.07,2013-07-09 15:00:00,
2013-07-09 08:01:00,56.5,36.0,29.89,NNW,335,2.0,31.0,46,0.00,,---,0.00,VWS V12.07,2013-07-09 15:01:00,
2013-07-09 08:02:00,57.6,37.0,29.89,NW,312,2.0,31.0,46,0.00,,---,0.00,VWS V12.07,2013-07-09 15:02:00,
2013-07-09 08:03:00,59.3,38.0,29.89,SSW,213,2.0,31.0,45,0.00,,---,0.00,VWS V12.07,2013-07-09 15:03:00,
2013-07-09 08:05:00,60.4,37.8,29.89,SSW,210,3.0,31.0,43,0.00,,---,0.00,VWS V12.07,2013-07-09 15:05:00,
2013-07-09 08:06:00,61.0,37.8,29.89,South,182,5.0,31.0,42,0.00,,---,0.00,VWS V12.07,2013-07-09 15:06:00,
2013-07-09 08:07:00,61.8,39.1,29.89,South,182,2.0,31.0,43,0.00,,---,0.00,VWS V12.07,2013-07-09 15:07:00,
2013-07-09 08:09:00,62.3,39.5,29.89,South,182,0.0,31.0,43,0.00,,---,0.00,VWS V12.07,2013-07-09 15:09:00,
2013-07-09 08:11:00,62.9,40.1,29.89,South,182,4.0,31.0,43,0.00,,---,0.00,VWS V12.07,2013-07-09 15:11:00,
2013-07-09 08:12:00,63.4,39.3,29.89,South,182,1.0,31.0,41,0.00,,---,0.00,VWS V12.07,2013-07-09 15:12:00,
2013-07-09 08:14:00,63.7,39.6,29.89,South,182,0.0,31.0,41,0.00,,---,0.00,VWS V12.07,2013-07-09 15:14:00,
2013-07-09 08:16:00,64.2,40.0,29.89,South,182,0.0,31.0,41,0.00,,---,0.00,VWS V12.07,2013-07-09 15:16:00,
2013-07-09 08:17:00,64.2,40.0,29.89,South,182,0.0,31.0,41,0.00,,---,0.00,VWS V12.07,2013-07-09 15:17:00,
2013-07-09 08:18:00,64.3,40.1,29.89,South,182,0.0,31.0,41,0.00,,---,0.00,VWS V12.07,2013-07-09 15:18:00,
2013-07-09 08:19:00,64.5,40.3,29.89,South,182,5.0,31.0,41,0.00,,---,0.00,VWS V12.07,2013-07-09 15:19:00,
2013-07-09 08:22:00,65.0,40.1,29.89,South,182,0.0,31.0,40,0.00,,---,0.00,VWS V12.07,2013-07-09 15:22:00,
2013-07-09 08:23:00,65.2,40.3,29.89,WSW,237,0.0,31.0,40,0.00,,---,0.00,VWS V12.07,2013-07-09 15:23:00,
2013-07-09 08:24:00,65.3,40.4,29.89,WSW,237,0.0,31.0,40,0.00,,---,0.00,VWS V12.07,2013-07-09 15:24:00,
2013-07-09 08:25:00,65.3,40.4,29.89,WSW,237,0.0,31.0,40,0.00,,---,0.00,VWS V12.07,2013-07-09 15:25:00,
2013-07-09 08:27:00,65.8,41.5,29.89,SSW,213,5.0,31.0,41,0.00,,---,0.00,VWS V12.07,2013-07-09 15:27:00,
2013-07-09 08:28:00,66.0,41.0,29.89,SSW,212,2.0,31.0,40,0.00,,---,0.00,VWS V12.07,2013-07-09 15:28:00,
2013-07-09 08:30:00,66.4,40.7,29.88,SSW,212,2.0,31.0,39,0.00,,---,0.00,VWS V12.07,2013-07-09 15:30:00,
2013-07-09 08:32:00,66.8,41.1,29.88,SSW,212,0.0,31.0,39,0.00,,---,0.00,VWS V12.07,2013-07-09 15:32:00,
2013-07-09 08:33:00,66.8,41.1,29.88,SSW,212,0.0,31.0,39,0.00,,---,0.00,VWS V12.07,2013-07-09 15:33:00,
2013-07-09 08:35:00,67.1,45.1,29.88,SSW,212,0.0,31.0,45,0.00,,---,0.00,VWS V12.07,2013-07-09 15:35:00,
2013-07-09 08:36:00,67.3,45.2,29.88,SSW,208,2.0,31.0,45,0.00,,---,0.00,VWS V12.07,2013-07-09 15:36:00,
2013-07-09 08:37:00,67.6,45.5,29.88,SSW,208,0.0,31.0,45,0.00,,---,0.00,VWS V12.07,2013-07-09 15:37:00,
2013-07-09 08:38:00,67.8,45.7,29.88,SSW,208,0.0,31.0,45,0.00,,---,0.00,VWS V12.07,2013-07-09 15:38:00,
2013-07-09 08:39:00,67.9,45.2,29.88,SSW,208,0.0,31.0,44,0.00,,---,0.00,VWS V12.07,2013-07-09 15:39:00,
2013-07-09 08:40:00,68.1,46.0,29.88,SSW,208,0.0,31.0,45,0.00,,---,0.00,VWS V12.07,2013-07-09 15:40:00,
2013-07-09 08:41:00,68.3,46.2,29.88,SSW,208,0.0,31.0,45,0.00,,---,0.00,VWS V12.07,2013-07-09 15:41:00,
2013-07-09 08:43:00,68.3,45.6,29.88,SSW,208,0.0,31.0,44,0.00,,---,0.00,VWS V12.07,2013-07-09 15:43:00,
2013-07-09 08:44:00,68.6,46.4,29.88,SSW,208,2.0,31.0,45,0.00,,---,0.00,VWS V12.07,2013-07-09 15:44:00,
2013-07-09 08:45:00,68.8,44.2,29.86,SSW,208,1.0,31.0,41,0.00,,---,0.00,VWS V12.07,2013-07-09 15:45:00,
2013-07-09 08:47:00,68.9,44.9,29.86,SSW,208,0.0,31.0,42,0.00,,---,0.00,VWS V12.07,2013-07-09 15:47:00,
2013-07-09 08:49:00,69.3,45.2,29.86,SSW,208,0.0,31.0,42,0.00,,---,0.00,VWS V12.07,2013-07-09 15:49:00,
2013-07-09 08:50:00,69.4,45.3,29.86,SSW,208,0.0,31.0,42,0.00,,---,0.00,VWS V12.07,2013-07-09 15:50:00,
2013-07-09 08:51:00,69.4,44.7,29.86,SSW,208,0.0,31.0,41,0.00,,---,0.00,VWS V12.07,2013-07-09 15:51:00,
2013-07-09 08:52:00,69.6,43.6,29.86,SSW,208,0.0,31.0,39,0.00,,---,0.00,VWS V12.07,2013-07-09 15:52:00,
2013-07-09 08:54:00,69.8,44.4,29.86,NW,315,0.0,31.0,40,0.00,,---,0.00,VWS V12.07,2013-07-09 15:54:00,
2013-07-09 08:55:00,69.8,44.4,29.86,NW,315,0.0,31.0,40,0.00,,---,0.00,VWS V12.07,2013-07-09 15:55:00,
2013-07-09 08:57:00,70.1,44.7,29.86,WNW,298,2.0,31.0,40,0.00,,---,0.00,VWS V12.07,2013-07-09 15:57:00,
2013-07-09 09:00:00,70.3,42.8,29.86,South,182,4.0,31.0,37,0.00,,---,0.00,VWS V12.07,2013-07-09 16:00:00,
2013-07-09 09:01:00,70.3,43.5,29.86,South,182,2.0,31.0,38,0.00,,---,0.00,VWS V12.07,2013-07-09 16:01:00,
2013-07-09 09:02:00,70.6,45.1,29.86,South,182,0.0,31.0,40,0.00,,---,0.00,VWS V12.07,2013-07-09 16:02:00,
2013-07-09 09:03:00,70.6,45.1,29.86,South,182,0.0,31.0,40,0.00,,---,0.00,VWS V12.07,2013-07-09 16:03:00,
2013-07-09 09:05:00,70.9,44.7,29.86,NNW,340,0.0,31.0,39,0.00,,---,0.00,VWS V12.07,2013-07-09 16:05:00,
2013-07-09 09:06:00,71.1,44.2,29.86,NNW,340,0.0,31.0,38,0.00,,---,0.00,VWS V12.07,2013-07-09 16:06:00,
2013-07-09 09:08:00,71.6,43.3,29.86,NNW,339,0.0,31.0,36,0.00,,---,0.00,VWS V12.07,2013-07-09 16:08:00,
2013-07-09 09:10:00,72.0,44.3,29.86,NNW,329,0.0,31.0,37,0.00,,---,0.00,VWS V12.07,2013-07-09 16:10:00,
2013-07-09 09:11:00,72.1,44.4,29.86,NNW,329,0.0,31.0,37,0.00,,---,0.00,VWS V12.07,2013-07-09 16:11:00,
2013-07-09 09:13:00,72.5,44.1,29.86,SSW,192,0.0,31.0,36,0.00,,---,0.00,VWS V12.07,2013-07-09 16:13:00,
2013-07-09 09:16:00,72.8,42.8,29.89,NW,306,0.0,31.0,34,0.00,,---,0.00,VWS V12.07,2013-07-09 16:16:00,
2013-07-09 09:17:00,73.0,43.8,29.89,NW,305,0.0,31.0,35,0.00,,---,0.00,VWS V12.07,2013-07-09 16:17:00,
2013-07-09 09:19:00,73.2,43.2,29.89,NW,312,3.0,31.0,34,0.00,,---,0.00,VWS V12.07,2013-07-09 16:19:00,
2013-07-09 09:21:00,73.5,44.2,29.89,NW,312,0.0,31.0,35,0.00,,---,0.00,VWS V12.07,2013-07-09 16:21:00,
2013-07-09 09:22:00,73.7,43.6,29.89,NW,312,0.0,31.0,34,0.00,,---,0.00,VWS V12.07,2013-07-09 16:22:00,
2013-07-09 09:24:00,73.9,43.8,29.89,NW,312,0.0,31.0,34,0.00,,---,0.00,VWS V12.07,2013-07-09 16:24:00,
2013-07-09 09:26:00,74.0,41.5,29.89,NW,312,0.0,31.0,31,0.00,,---,0.00,VWS V12.07,2013-07-09 16:26:00,
2013-07-09 09:27:00,74.2,42.5,29.89,NW,312,0.0,31.0,32,0.00,,---,0.00,VWS V12.07,2013-07-09 16:27:00,
2013-07-09 09:29:00,74.6,43.6,29.88,NW,304,3.0,31.0,33,0.00,,---,0.00,VWS V12.07,2013-07-09 16:29:00,
2013-07-09 09:31:00,74.6,41.2,29.88,SSW,198,5.0,31.0,30,0.00,,---,0.00,VWS V12.07,2013-07-09 16:31:00,
2013-07-09 09:32:00,74.6,40.3,29.88,SSW,198,2.0,31.0,29,0.00,,---,0.00,VWS V12.07,2013-07-09 16:32:00,
2013-07-09 09:33:00,74.7,42.9,29.88,SSW,196,5.0,31.0,32,0.00,,---,0.00,VWS V12.07,2013-07-09 16:33:00,
2013-07-09 09:35:00,74.6,41.2,29.88,SSW,195,0.0,31.0,30,0.00,,---,0.00,VWS V12.07,2013-07-09 16:35:00,
2013-07-09 09:37:00,74.9,42.3,29.88,SSW,196,6.0,31.0,31,0.00,,---,0.00,VWS V12.07,2013-07-09 16:37:00,
2013-07-09 09:39:00,74.9,40.5,29.88,South,191,0.0,31.0,29,0.00,,---,0.00,VWS V12.07,2013-07-09 16:39:00,
2013-07-09 09:40:00,74.9,40.5,29.88,WNW,295,0.0,31.0,29,0.00,,---,0.00,VWS V12.07,2013-07-09 16:40:00,
2013-07-09 09:42:00,75.3,40.0,29.88,WNW,301,0.0,31.0,28,0.00,,---,0.00,VWS V12.07,2013-07-09 16:42:00,
2013-07-09 09:43:00,75.4,40.1,29.88,WNW,301,1.0,31.0,28,0.00,,---,0.00,VWS V12.07,2013-07-09 16:43:00,
2013-07-09 09:44:00,75.4,40.1,29.88,SSW,206,2.0,31.0,28,0.00,,---,0.00,VWS V12.07,2013-07-09 16:44:00,
2013-07-09 09:45:00,75.8,41.3,29.88,SSW,208,0.0,31.0,29,0.00,,---,0.00,VWS V12.07,2013-07-09 16:45:00,
2013-07-09 09:47:00,75.8,41.3,29.88,SSW,198,2.0,31.0,29,0.00,,---,0.00,VWS V12.07,2013-07-09 16:47:00,
2013-07-09 09:48:00,76.0,43.2,29.88,SSW,199,3.0,31.0,31,0.00,,---,0.00,VWS V12.07,2013-07-09 16:48:00,
2013-07-09 09:49:00,76.1,41.6,29.88,South,186,6.0,31.0,29,0.00,,---,0.00,VWS V12.07,2013-07-09 16:49:00,
2013-07-09 09:50:00,75.4,40.1,29.88,South,189,2.0,31.0,28,0.00,,---,0.00,VWS V12.07,2013-07-09 16:50:00,
2013-07-09 09:52:00,75.4,41.8,29.88,South,186,1.0,31.0,30,0.00,,---,0.00,VWS V12.07,2013-07-09 16:52:00,
2013-07-09 09:54:00,75.6,42.0,29.88,NNW,335,0.0,31.0,30,0.00,,---,0.00,VWS V12.07,2013-07-09 16:54:00,
2013-07-09 09:55:00,75.6,41.1,29.88,South,186,5.0,31.0,29,0.00,,---,0.00,VWS V12.07,2013-07-09 16:55:00,
2013-07-09 09:56:00,75.6,41.1,29.88,South,189,2.0,31.0,29,0.00,,---,0.00,VWS V12.07,2013-07-09 16:56:00,
2013-07-09 09:58:00,76.1,42.5,29.88,WNW,284,0.0,31.0,30,0.00,,---,0.00,VWS V12.07,2013-07-09 16:58:00,
2013-07-09 09:59:00,76.3,42.6,29.88,SW,215,1.0,31.0,30,0.00,,---,0.00,VWS V12.07,2013-07-09 16:59:00,
2013-07-09 10:00:00,76.5,41.9,29.88,SW,215,3.0,31.0,29,0.00,,---,0.00,VWS V12.07,2013-07-09 17:00:00,
2013-07-09 10:01:00,76.5,41.0,29.88,SSW,193,5.0,31.0,28,0.00,,---,0.00,VWS V12.07,2013-07-09 17:01:00,
2013-07-09 10:03:00,76.5,41.0,29.88,South,189,0.0,31.0,28,0.00,,---,0.00,VWS V12.07,2013-07-09 17:03:00,
2013-07-09 10:04:00,76.5,41.0,29.88,NW,305,2.0,31.0,28,0.00,,---,0.00,VWS V12.07,2013-07-09 17:04:00,
2013-07-09 10:05:00,76.8,41.3,29.88,NW,305,0.0,31.0,28,0.00,,---,0.00,VWS V12.07,2013-07-09 17:05:00,
2013-07-09 10:06:00,77.0,41.4,29.88,NW,305,0.0,31.0,28,0.00,,---,0.00,VWS V12.07,2013-07-09 17:06:00,
2013-07-09 10:08:00,77.0,42.3,29.88,South,185,2.0,31.0,29,0.00,,---,0.00,VWS V12.07,2013-07-09 17:08:00,
2013-07-09 10:09:00,77.0,42.3,29.88,South,185,5.0,31.0,29,0.00,,---,0.00,VWS V12.07,2013-07-09 17:09:00,
2013-07-09 10:10:00,76.8,43.0,29.88,South,184,5.0,31.0,30,0.00,,---,0.00,VWS V12.07,2013-07-09 17:10:00,
2013-07-09 10:11:00,76.8,43.0,29.88,South,184,2.0,31.0,30,0.00,,---,0.00,VWS V12.07,2013-07-09 17:11:00,
2013-07-09 10:14:00,77.4,44.4,29.88,South,189,2.0,31.0,31,0.00,,---,0.00,VWS V12.07,2013-07-09 17:14:00,
2013-07-09 10:15:00,77.4,43.6,29.90,South,186,0.0,31.0,30,0.00,,---,0.00,VWS V12.07,2013-07-09 17:15:00,
2013-07-09 10:16:00,77.6,44.6,29.90,South,191,0.0,31.0,31,0.00,,---,0.00,VWS V12.07,2013-07-09 17:16:00,
2013-07-09 10:19:00,78.1,44.2,29.90,South,189,7.0,31.0,30,0.00,,---,0.00,VWS V12.07,2013-07-09 17:19:00,
2013-07-09 10:20:00,78.1,45.0,29.90,SSW,193,0.0,31.0,31,0.00,,---,0.00,VWS V12.07,2013-07-09 17:20:00,
2013-07-09 10:21:00,78.1,44.2,29.90,NW,323,0.0,31.0,30,0.00,,---,0.00,VWS V12.07,2013-07-09 17:21:00,
2013-07-09 10:22:00,78.5,44.5,29.90,NW,316,3.0,31.0,30,0.00,,---,0.00,VWS V12.07,2013-07-09 17:22:00,
2013-07-09 10:24:00,79.0,45.0,29.90,NW,316,0.0,31.0,30,0.00,,---,0.00,VWS V12.07,2013-07-09 17:24:00,
2013-07-09 10:26:00,79.2,45.1,29.90,NW,316,0.0,31.0,30,0.00,,---,0.00,VWS V12.07,2013-07-09 17:26:00,
2013-07-09 10:27:00,79.2,45.1,29.90,SSW,196,5.0,31.0,30,0.00,,---,0.00,VWS V12.07,2013-07-09 17:27:00,
2013-07-09 10:30:00,78.5,44.5,29.88,South,191,7.0,31.0,30,0.00,,---,0.00,VWS V12.07,2013-07-09 17:30:00,
2013-07-09 10:31:00,77.9,44.9,29.88,South,188,2.0,31.0,31,0.00,,---,0.00,VWS V12.07,2013-07-09 17:31:00,
2013-07-09 10:32:00,77.7,44.7,29.88,South,186,6.0,31.0,31,0.00,,---,0.00,VWS V12.07,2013-07-09 17:32:00,
2013-07-09 10:33:00,77.9,44.0,29.88,SSW,198,3.0,31.0,30,0.00,,---,0.00,VWS V12.07,2013-07-09 17:33:00,
2013-07-09 10:35:00,77.9,44.0,29.88,SSW,195,2.0,31.0,30,0.00,,---,0.00,VWS V12.07,2013-07-09 17:35:00,
2013-07-09 10:36:00,77.9,44.0,29.88,South,185,5.0,31.0,30,0.00,,---,0.00,VWS V12.07,2013-07-09 17:36:00,
2013-07-09 10:37:00,77.9,44.9,29.88,WNW,288,1.0,31.0,31,0.00,,---,0.00,VWS V12.07,2013-07-09 17:37:00,
2013-07-09 10:38:00,78.1,45.0,29.88,WNW,288,0.0,31.0,31,0.00,,---,0.00,VWS V12.07,2013-07-09 17:38:00,
2013-07-09 10:40:00,78.5,45.4,29.88,West,281,3.0,31.0,31,0.00,,---,0.00,VWS V12.07,2013-07-09 17:40:00,
2013-07-09 10:41:00,78.6,45.5,29.88,South,191,5.0,31.0,31,0.00,,---,0.00,VWS V12.07,2013-07-09 17:41:00,
2013-07-09 10:42:00,78.5,44.5,29.88,South,189,5.0,31.0,30,0.00,,---,0.00,VWS V12.07,2013-07-09 17:42:00,
2013-07-09 10:43:00,78.3,45.2,29.88,South,191,4.0,31.0,31,0.00,,---,0.00,VWS V12.07,2013-07-09 17:43:00,
2013-07-09 10:45:00,78.5,45.4,29.88,South,189,3.0,31.0,31,0.00,,---,0.00,VWS V12.07,2013-07-09 17:45:00,
2013-07-09 10:46:00,78.5,45.4,29.88,SSW,199,1.0,31.0,31,0.00,,---,0.00,VWS V12.07,2013-07-09 17:46:00,
2013-07-09 10:47:00,78.8,45.6,29.88,SSW,199,3.0,31.0,31,0.00,,---,0.00,VWS V12.07,2013-07-09 17:47:00,
2013-07-09 10:48:00,78.6,45.5,29.88,South,186,4.0,31.0,31,0.00,,---,0.00,VWS V12.07,2013-07-09 17:48:00,
2013-07-09 10:51:00,79.0,45.8,29.88,South,186,2.0,31.0,31,0.00,,---,0.00,VWS V12.07,2013-07-09 17:51:00,
2013-07-09 10:52:00,79.2,46.0,29.88,South,188,2.0,31.0,31,0.00,,---,0.00,VWS V12.07,2013-07-09 17:52:00,
2013-07-09 10:53:00,79.4,45.3,29.88,NNW,330,2.0,31.0,30,0.00,,---,0.00,VWS V12.07,2013-07-09 17:53:00,
2013-07-09 10:54:00,79.4,45.3,29.88,South,188,5.0,31.0,30,0.00,,---,0.00,VWS V12.07,2013-07-09 17:54:00,
2013-07-09 10:56:00,79.6,46.3,29.88,South,184,6.0,31.0,31,0.00,,---,0.00,VWS V12.07,2013-07-09 17:56:00,
2013-07-09 10:57:00,79.4,45.3,29.88,South,182,2.0,31.0,30,0.00,,---,0.00,VWS V12.07,2013-07-09 17:57:00,
2013-07-09 10:58:00,79.6,45.5,29.88,South,176,0.0,31.0,30,0.00,,---,0.00,VWS V12.07,2013-07-09 17:58:00,
2013-07-09 10:59:00,79.9,45.7,29.87,NW,326,0.0,31.0,30,0.00,,---,0.00,VWS V12.07,2013-07-09 17:59:00,
2013-07-09 11:01:00,80.5,45.3,29.87,NW,325,0.0,31.0,29,0.00,,---,0.00,VWS V12.07,2013-07-09 18:01:00,
2013-07-09 11:02:00,80.5,46.2,29.87,NW,325,0.0,31.0,30,0.00,,---,0.00,VWS V12.07,2013-07-09 18:02:00,
2013-07-09 11:03:00,81.1,46.8,29.87,NW,325,1.0,31.0,30,0.00,,---,0.00,VWS V12.07,2013-07-09 18:03:00,
2013-07-09 11:05:00,81.2,46.0,29.87,South,178,2.0,31.0,29,0.00,,---,0.00,VWS V12.07,2013-07-09 18:05:00,
2013-07-09 11:06:00,81.2,46.0,29.87,South,174,2.0,31.0,29,0.00,,---,0.00,VWS V12.07,2013-07-09 18:06:00,
2013-07-09 11:07:00,81.1,45.9,29.87,SE,141,2.0,31.0,29,0.00,,---,0.00,VWS V12.07,2013-07-09 18:07:00,
2013-07-09 11:09:00,81.1,45.9,29.87,SSE,147,2.0,31.0,29,0.00,,---,0.00,VWS V12.07,2013-07-09 18:09:00,
2013-07-09 11:10:00,81.1,45.9,29.87,South,182,4.0,31.0,29,0.00,,---,0.00,VWS V12.07,2013-07-09 18:10:00,
2013-07-09 11:12:00,80.7,45.5,29.87,SSW,192,5.0,31.0,29,0.00,,---,0.00,VWS V12.07,2013-07-09 18:12:00,
2013-07-09 11:14:00,80.9,44.8,29.87,South,189,2.0,31.0,28,0.00,,---,0.00,VWS V12.07,2013-07-09 18:14:00,
2013-07-09 11:15:00,80.9,45.7,29.87,SSE,162,0.0,31.0,29,0.00,,---,0.00,VWS V12.07,2013-07-09 18:15:00,
2013-07-09 11:17:00,81.2,45.0,29.87,NW,308,1.0,31.0,28,0.00,,---,0.00,VWS V12.07,2013-07-09 18:17:00,
2013-07-09 11:19:00,81.8,45.5,29.87,NW,308,0.0,31.0,28,0.00,,---,0.00,VWS V12.07,2013-07-09 18:19:00,
2013-07-09 11:20:00,82.0,45.7,29.87,NW,308,0.0,31.0,28,0.00,,---,0.00,VWS V12.07,2013-07-09 18:20:00,
2013-07-09 11:22:00,82.6,46.2,29.87,NW,318,3.0,31.0,28,0.00,,---,0.00,VWS V12.07,2013-07-09 18:22:00,
2013-07-09 11:24:00,83.2,44.8,29.87,SSW,203,6.0,31.0,26,0.00,,---,0.00,VWS V12.07,2013-07-09 18:24:00,
2013-07-09 11:25:00,83.0,46.6,29.87,South,178,5.0,31.0,28,0.00,,---,0.00,VWS V12.07,2013-07-09 18:25:00,
2013-07-09 11:26:00,82.8,46.4,29.87,South,174,1.0,31.0,28,0.00,,---,0.00,VWS V12.07,2013-07-09 18:26:00,
2013-07-09 11:27:00,82.8,45.4,29.87,South,174,0.0,31.0,27,0.00,,---,0.00,VWS V12.07,2013-07-09 18:27:00,
2013-07-09 11:29:00,82.6,44.3,29.87,South,186,5.0,31.0,26,0.00,,---,0.00,VWS V12.07,2013-07-09 18:29:00,
2013-07-09 11:30:00,82.6,44.3,29.86,South,174,5.0,31.0,26,0.00,,---,0.00,VWS V12.07,2013-07-09 18:30:00,
2013-07-09 11:31:00,82.6,43.2,29.86,South,184,5.0,31.0,25,0.00,,---,0.00,VWS V12.07,2013-07-09 18:31:00,
2013-07-09 11:32:00,82.6,43.2,29.86,South,186,3.0,31.0,25,0.00,,---,0.00,VWS V12.07,2013-07-09 18:32:00,
2013-07-09 11:34:00,83.0,44.6,29.86,SSW,193,5.0,31.0,26,0.00,,---,0.00,VWS V12.07,2013-07-09 18:34:00,
2013-07-09 11:35:00,83.0,44.6,29.86,SSE,167,0.0,31.0,26,0.00,,---,0.00,VWS V12.07,2013-07-09 18:35:00,
2013-07-09 11:36:00,83.2,44.8,29.86,SSE,168,0.0,31.0,26,0.00,,---,0.00,VWS V12.07,2013-07-09 18:36:00,
2013-07-09 11:37:00,83.4,45.0,29.86,NW,323,2.0,31.0,26,0.00,,---,0.00,VWS V12.07,2013-07-09 18:37:00,
2013-07-09 11:40:00,84.0,45.5,29.86,WNW,287,5.0,31.0,26,0.00,,---,0.00,VWS V12.07,2013-07-09 18:40:00,
2013-07-09 11:41:00,84.1,46.5,29.86,SW,220,3.0,31.0,27,0.00,,---,0.00,VWS V12.07,2013-07-09 18:41:00,
2013-07-09 11:42:00,84.1,45.5,29.86,SSW,196,0.0,31.0,26,0.00,,---,0.00,VWS V12.07,2013-07-09 18:42:00,
2013-07-09 11:43:00,84.3,45.7,29.86,SSW,202,0.0,31.0,26,0.00,,---,0.00,VWS V12.07,2013-07-09 18:43:00,
2013-07-09 11:45:00,84.9,46.2,29.85,NNW,329,0.0,31.0,26,0.00,,---,0.00,VWS V12.07,2013-07-09 18:45:00,
2013-07-09 11:46:00,85.1,45.4,29.85,NNW,330,0.0,31.0,25,0.00,,---,0.00,VWS V12.07,2013-07-09 18:46:00,
2013-07-09 11:47:00,85.7,45.9,29.85,NNW,333,2.0,31.0,25,0.00,,---,0.00,VWS V12.07,2013-07-09 18:47:00,
2013-07-09 11:48:00,85.7,45.9,29.85,NNW,330,3.0,31.0,25,0.00,,---,0.00,VWS V12.07,2013-07-09 18:48:00,
2013-07-09 11:50:00,86.3,46.4,29.85,NNW,330,0.0,31.0,25,0.00,,---,0.00,VWS V12.07,2013-07-09 18:50:00,
2013-07-09 11:51:00,86.5,47.6,29.85,NNW,332,3.0,31.0,26,0.00,,---,0.00,VWS V12.07,2013-07-09 18:51:00,
2013-07-09 11:52:00,86.7,46.7,29.85,NNW,332,2.0,31.0,25,0.00,,---,0.00,VWS V12.07,2013-07-09 18:52:00,
2013-07-09 11:53:00,87.0,47.0,29.85,North,356,0.0,31.0,25,0.00,,---,0.00,VWS V12.07,2013-07-09 18:53:00,
2013-07-09 11:55:00,88.0,47.8,29.85,North,357,4.0,31.0,25,0.00,,---,0.00,VWS V12.07,2013-07-09 18:55:00,
2013-07-09 11:56:00,88.2,46.9,29.85,North,353,5.0,31.0,24,0.00,,---,0.00,VWS V12.07,2013-07-09 18:56:00,
2013-07-09 11:57:00,88.4,47.1,29.85,North,354,2.0,31.0,24,0.00,,---,0.00,VWS V12.07,2013-07-09 18:57:00,
2013-07-09 11:58:00,88.8,47.4,29.85,NW,326,2.0,31.0,24,0.00,,---,0.00,VWS V12.07,2013-07-09 18:58:00,
2013-07-09 11:59:00,88.8,47.4,29.85,South,189,5.0,31.0,24,0.00,,---,0.00,VWS V12.07,2013-07-09 18:59:00,
2013-07-09 12:00:00,88.0,47.8,29.83,SSW,200,4.0,31.0,25,0.00,,---,0.00,VWS V12.07,2013-07-09 19:00:00,
2013-07-09 12:02:00,88.0,47.8,29.83,SSW,192,3.0,31.0,25,0.00,,---,0.00,VWS V12.07,2013-07-09 19:02:00,
2013-07-09 12:03:00,87.6,47.5,29.83,SSW,192,2.0,31.0,25,0.00,,---,0.00,VWS V12.07,2013-07-09 19:03:00,
2013-07-09 12:05:00,87.6,48.5,29.83,SSW,195,1.0,31.0,26,0.00,,---,0.00,VWS V12.07,2013-07-09 19:05:00,
2013-07-09 12:06:00,87.0,47.0,29.83,South,182,9.0,31.0,25,0.00,,---,0.00,VWS V12.07,2013-07-09 19:06:00,
2013-07-09 12:07:00,86.7,46.7,29.83,South,181,5.0,31.0,25,0.00,,---,0.00,VWS V12.07,2013-07-09 19:07:00,
2013-07-09 12:08:00,86.7,47.8,29.83,South,182,1.0,31.0,26,0.00,,---,0.00,VWS V12.07,2013-07-09 19:08:00,
2013-07-09 12:10:00,86.1,46.2,29.83,SSW,202,5.0,31.0,25,0.00,,---,0.00,VWS V12.07,2013-07-09 19:10:00,
2013-07-09 12:11:00,86.1,47.2,29.83,SE,145,1.0,31.0,26,0.00,,---,0.00,VWS V12.07,2013-07-09 19:11:00,
2013-07-09 12:12:00,85.9,47.1,29.83,SSE,150,2.0,31.0,26,0.00,,---,0.00,VWS V12.07,2013-07-09 19:12:00,
2013-07-09 12:13:00,85.7,45.9,29.83,SSE,150,0.0,31.0,25,0.00,,---,0.00,VWS V12.07,2013-07-09 19:13:00,
2013-07-09 12:15:00,85.9,47.1,29.85,SE,144,0.0,31.0,26,0.00,,---,0.00,VWS V12.07,2013-07-09 19:15:00,
2013-07-09 12:16:00,86.1,46.2,29.85,South,188,6.0,31.0,25,0.00,,---,0.00,VWS V12.07,2013-07-09 19:16:00,
2013-07-09 12:17:00,86.1,46.2,29.85,South,181,10.0,31.0,25,0.00,,---,0.00,VWS V12.07,2013-07-09 19:17:00,
2013-07-09 12:18:00,85.7,46.9,29.85,South,181,9.0,31.0,26,0.00,,---,0.00,VWS V12.07,2013-07-09 19:18:00,
2013-07-09 12:20:00,85.7,45.9,29.85,South,191,2.0,31.0,25,0.00,,---,0.00,VWS V12.07,2013-07-09 19:20:00,
2013-07-09 12:21:00,85.9,47.1,29.85,South,189,0.0,31.0,26,0.00,,---,0.00,VWS V12.07,2013-07-09 19:21:00,
2013-07-09 12:22:00,86.3,46.4,29.85,South,189,0.0,31.0,25,0.00,,---,0.00,VWS V12.07,2013-07-09 19:22:00,
2013-07-09 12:23:00,86.5,46.5,29.85,SSW,192,1.0,31.0,25,0.00,,---,0.00,VWS V12.07,2013-07-09 19:23:00,
2013-07-09 12:25:00,87.2,47.1,29.85,WNW,299,0.0,31.0,25,0.00,,---,0.00,VWS V12.07,2013-07-09 19:25:00,
2013-07-09 12:26:00,87.6,47.5,29.85,WNW,301,0.0,31.0,25,0.00,,---,0.00,VWS V12.07,2013-07-09 19:26:00,
2013-07-09 12:27:00,87.8,47.6,29.85,WNW,296,5.0,31.0,25,0.00,,---,0.00,VWS V12.07,2013-07-09 19:27:00,
2013-07-09 12:28:00,87.8,47.6,29.85,NW,308,0.0,31.0,25,0.00,,---,0.00,VWS V12.07,2013-07-09 19:28:00,
2013-07-09 12:30:00,88.4,48.1,29.83,NNE,16,1.0,31.0,25,0.00,,---,0.00,VWS V12.07,2013-07-09 19:30:00,
2013-07-09 12:31:00,88.8,48.5,29.83,NW,312,1.0,31.0,25,0.00,,---,0.00,VWS V12.07,2013-07-09 19:31:00,
2013-07-09 12:32:00,89.3,47.8,29.83,NW,319,0.0,31.0,24,0.00,,---,0.00,VWS V12.07,2013-07-09 19:32:00,
2013-07-09 12:33:00,89.3,48.9,29.83,SW,223,7.0,31.0,25,0.00,,---,0.00,VWS V12.07,2013-07-09 19:33:00,
2013-07-09 12:35:00,88.6,49.4,29.83,SSE,164,2.0,31.0,26,0.00,,---,0.00,VWS V12.07,2013-07-09 19:35:00,
2013-07-09 12:36:00,88.6,48.3,29.83,NNW,335,1.0,31.0,25,0.00,,---,0.00,VWS V12.07,2013-07-09 19:36:00,
2013-07-09 12:38:00,88.6,48.3,29.83,South,189,2.0,31.0,25,0.00,,---,0.00,VWS V12.07,2013-07-09 19:38:00,
2013-07-09 12:39:00,88.6,48.3,29.83,South,188,4.0,31.0,25,0.00,,---,0.00,VWS V12.07,2013-07-09 19:39:00,
2013-07-09 12:40:00,88.6,48.3,29.83,SSW,208,10.0,31.0,25,0.00,,---,0.00,VWS V12.07,2013-07-09 19:40:00,
2013-07-09 12:43:00,87.4,47.3,29.83,SSE,168,6.0,31.0,25,0.00,,---,0.00,VWS V12.07,2013-07-09 19:43:00,
2013-07-09 12:44:00,87.4,47.3,29.83,SSE,168,6.0,31.0,25,0.00,,---,0.00,VWS V12.07,2013-07-09 19:44:00,
2013-07-09 12:46:00,86.7,45.6,29.84,SSW,192,11.0,31.0,24,0.00,,---,0.00,VWS V12.07,2013-07-09 19:46:00,
2013-07-09 12:48:00,85.9,46.0,29.84,NW,304,1.0,31.0,25,0.00,,---,0.00,VWS V12.07,2013-07-09 19:48:00,
2013-07-09 12:49:00,85.9,46.0,29.84,NW,304,3.0,31.0,25,0.00,,---,0.00,VWS V12.07,2013-07-09 19:49:00,
2013-07-09 12:50:00,86.3,46.4,29.84,WNW,301,0.0,31.0,25,0.00,,---,0.00,VWS V12.07,2013-07-09 19:50:00,
2013-07-09 12:52:00,86.7,46.7,29.84,NW,305,2.0,31.0,25,0.00,,---,0.00,VWS V12.07,2013-07-09 19:52:00,
2013-07-09 12:54:00,87.6,47.5,29.84,NW,304,0.0,31.0,25,0.00,,---,0.00,VWS V12.07,2013-07-09 19:54:00,
2013-07-09 12:55:00,87.4,47.3,29.84,South,179,5.0,31.0,25,0.00,,---,0.00,VWS V12.07,2013-07-09 19:55:00,
2013-07-09 12:57:00,87.4,47.3,29.84,SW,222,6.0,31.0,25,0.00,,---,0.00,VWS V12.07,2013-07-09 19:57:00,
2013-07-09 12:59:00,87.4,47.3,29.84,NW,311,1.0,31.0,25,0.00,,---,0.00,VWS V12.07,2013-07-09 19:59:00,
2013-07-09 13:01:00,87.4,47.3,29.83,NW,304,0.0,31.0,25,0.00,,---,0.00,VWS V12.07,2013-07-09 20:01:00,
2013-07-09 13:02:00,87.8,46.5,29.83,NW,312,5.0,31.0,24,0.00,,---,0.00,VWS V12.07,2013-07-09 20:02:00,
2013-07-09 13:04:00,88.0,46.7,29.83,SSE,158,3.0,31.0,24,0.00,,---,0.00,VWS V12.07,2013-07-09 20:04:00,
2013-07-09 13:06:00,88.0,46.7,29.83,South,181,0.0,31.0,24,0.00,,---,0.00,VWS V12.07,2013-07-09 20:06:00,
2013-07-09 13:07:00,88.4,47.1,29.83,SW,217,2.0,31.0,24,0.00,,---,0.00,VWS V12.07,2013-07-09 20:07:00,
2013-07-09 13:09:00,88.8,47.4,29.83,South,186,3.0,31.0,24,0.00,,---,0.00,VWS V12.07,2013-07-09 20:09:00,
2013-07-09 13:10:00,89.3,47.8,29.83,South,186,2.0,31.0,24,0.00,,---,0.00,VWS V12.07,2013-07-09 20:10:00,
2013-07-09 13:11:00,89.3,47.8,29.83,South,185,1.0,31.0,24,0.00,,---,0.00,VWS V12.07,2013-07-09 20:11:00,
2013-07-09 13:13:00,89.3,46.7,29.83,NNW,328,0.0,31.0,23,0.00,,---,0.00,VWS V12.07,2013-07-09 20:13:00,
2013-07-09 13:14:00,89.7,48.2,29.82,South,191,5.0,31.0,24,0.00,,---,0.00,VWS V12.07,2013-07-09 20:14:00,
2013-07-09 13:15:00,89.3,47.8,29.82,SSW,198,2.0,31.0,24,0.00,,---,0.00,VWS V12.07,2013-07-09 20:15:00,
2013-07-09 13:16:00,89.3,47.8,29.82,SSW,198,2.0,31.0,24,0.00,,---,0.00,VWS V12.07,2013-07-09 20:16:00,
2013-07-09 13:18:00,89.5,46.8,29.82,SSW,202,3.0,31.0,23,0.00,,---,0.00,VWS V12.07,2013-07-09 20:18:00,
2013-07-09 13:19:00,89.3,46.7,29.82,NW,315,0.0,31.0,23,0.00,,---,0.00,VWS V12.07,2013-07-09 20:19:00,
2013-07-09 13:20:00,89.3,46.7,29.82,South,191,5.0,31.0,23,0.00,,---,0.00,VWS V12.07,2013-07-09 20:20:00,
2013-07-09 13:21:00,89.3,46.7,29.82,South,189,2.0,31.0,23,0.00,,---,0.00,VWS V12.07,2013-07-09 20:21:00,
2013-07-09 13:24:00,88.6,46.1,29.82,South,189,0.0,31.0,23,0.00,,---,0.00,VWS V12.07,2013-07-09 20:24:00,
2013-07-09 13:25:00,88.8,46.3,29.82,West,277,0.0,31.0,23,0.00,,---,0.00,VWS V12.07,2013-07-09 20:25:00,
2013-07-09 13:26:00,88.8,46.3,29.82,South,175,3.0,31.0,23,0.00,,---,0.00,VWS V12.07,2013-07-09 20:26:00,
2013-07-09 13:29:00,89.5,46.8,29.82,South,176,3.0,31.0,23,0.00,,---,0.00,VWS V12.07,2013-07-09 20:29:00,
2013-07-09 13:30:00,89.7,45.8,29.82,South,184,0.0,31.0,22,0.00,,---,0.00,VWS V12.07,2013-07-09 20:30:00,
2013-07-09 13:31:00,89.9,44.8,29.82,NW,308,2.0,31.0,21,0.00,,---,0.00,VWS V12.07,2013-07-09 20:31:00,
2013-07-09 13:32:00,90.1,46.2,29.82,NW,319,1.0,31.0,22,0.00,,---,0.00,VWS V12.07,2013-07-09 20:32:00,
2013-07-09 13:34:00,90.1,46.2,29.82,South,179,9.0,31.0,22,0.00,,---,0.00,VWS V12.07,2013-07-09 20:34:00,
2013-07-09 13:35:00,89.7,45.8,29.82,WNW,301,6.0,31.0,22,0.00,,---,0.00,VWS V12.07,2013-07-09 20:35:00,
2013-07-09 13:36:00,89.7,45.8,29.82,NW,323,4.0,31.0,22,0.00,,---,0.00,VWS V12.07,2013-07-09 20:36:00,
2013-07-09 13:37:00,89.7,39.1,29.82,NNW,328,0.0,31.0,17,0.00,,---,0.00,VWS V12.07,2013-07-09 20:37:00,
2013-07-09 13:40:00,89.5,39.0,29.82,SE,124,0.0,31.0,17,0.00,,---,0.00,VWS V12.07,2013-07-09 20:40:00,
2013-07-09 13:42:00,89.7,39.1,29.82,SSW,208,3.0,31.0,17,0.00,,---,0.00,VWS V12.07,2013-07-09 20:42:00,
2013-07-09 13:43:00,89.7,39.1,29.82,South,181,2.0,31.0,17,0.00,,---,0.00,VWS V12.07,2013-07-09 20:43:00,
2013-07-09 13:45:00,89.9,37.8,29.82,North,349,0.0,31.0,16,0.00,,---,0.00,VWS V12.07,2013-07-09 20:45:00,
2013-07-09 13:47:00,90.5,38.2,29.82,NNW,344,0.0,31.0,16,0.00,,---,0.00,VWS V12.07,2013-07-09 20:47:00,
2013-07-09 13:48:00,90.7,38.4,29.82,NNW,344,0.0,31.0,16,0.00,,---,0.00,VWS V12.07,2013-07-09 20:48:00,
2013-07-09 13:49:00,91.2,35.4,29.82,WNW,298,0.0,31.0,14,0.00,,---,0.00,VWS V12.07,2013-07-09 20:49:00,
2013-07-09 13:50:00,91.6,37.5,29.82,North,0,0.0,31.0,15,0.00,,---,0.00,VWS V12.07,2013-07-09 20:50:00,
2013-07-09 13:52:00,92.5,38.2,29.82,WNW,302,3.0,31.0,15,0.00,,---,0.00,VWS V12.07,2013-07-09 20:52:00,
2013-07-09 13:53:00,92.5,38.2,29.82,South,189,2.0,31.0,15,0.00,,---,0.00,VWS V12.07,2013-07-09 20:53:00,
2013-07-09 13:54:00,92.5,38.2,29.82,South,184,2.0,31.0,15,0.00,,---,0.00,VWS V12.07,2013-07-09 20:54:00,
2013-07-09 13:55:00,92.3,38.0,29.82,WSW,243,0.0,31.0,15,0.00,,---,0.00,VWS V12.07,2013-07-09 20:55:00,
2013-07-09 13:56:00,92.5,38.2,29.82,NNW,337,1.0,31.0,15,0.00,,---,0.00,VWS V12.07,2013-07-09 20:56:00,
2013-07-09 13:58:00,92.7,36.6,29.82,NW,309,2.0,31.0,14,0.00,,---,0.00,VWS V12.07,2013-07-09 20:58:00,
2013-07-09 14:00:00,92.7,36.6,29.80,WNW,289,0.0,31.0,14,0.00,,---,0.00,VWS V12.07,2013-07-09 21:00:00,
2013-07-09 14:01:00,92.7,38.3,29.80,South,178,5.0,31.0,15,0.00,,---,0.00,VWS V12.07,2013-07-09 21:01:00,
2013-07-09 14:02:00,92.7,38.3,29.80,South,184,6.0,31.0,15,0.00,,---,0.00,VWS V12.07,2013-07-09 21:02:00,
2013-07-09 14:03:00,92.5,36.4,29.80,South,191,2.0,31.0,14,0.00,,---,0.00,VWS V12.07,2013-07-09 21:03:00,
2013-07-09 14:04:00,92.3,38.0,29.80,SSW,193,1.0,31.0,15,0.00,,---,0.00,VWS V12.07,2013-07-09 21:04:00,
2013-07-09 14:05:00,92.3,38.0,29.80,WSW,253,1.0,31.0,15,0.00,,---,0.00,VWS V12.07,2013-07-09 21:05:00,
2013-07-09 14:07:00,91.0,38.6,29.80,South,184,5.0,31.0,16,0.00,,---,0.00,VWS V12.07,2013-07-09 21:07:00,
2013-07-09 14:08:00,90.5,38.2,29.80,SSW,206,8.0,31.0,16,0.00,,---,0.00,VWS V12.07,2013-07-09 21:08:00,
2013-07-09 14:09:00,90.5,38.2,29.80,South,181,8.0,31.0,16,0.00,,---,0.00,VWS V12.07,2013-07-09 21:09:00,
2013-07-09 14:10:00,90.5,38.2,29.80,SSE,161,0.0,31.0,16,0.00,,---,0.00,VWS V12.07,2013-07-09 21:10:00,
2013-07-09 14:12:00,89.5,39.0,29.80,SSW,210,8.0,31.0,17,0.00,,---,0.00,VWS V12.07,2013-07-09 21:12:00,
2013-07-09 14:14:00,89.3,38.8,29.82,SSW,196,2.0,31.0,17,0.00,,---,0.00,VWS V12.07,2013-07-09 21:14:00,
2013-07-09 14:15:00,89.3,38.8,29.82,SSW,196,5.0,31.0,17,0.00,,---,0.00,VWS V12.07,2013-07-09 21:15:00,
2013-07-09 14:17:00,89.0,37.0,29.82,South,189,3.0,31.0,16,0.00,,---,0.00,VWS V12.07,2013-07-09 21:17:00,
2013-07-09 14:18:00,89.0,37.0,29.82,South,181,0.0,31.0,16,0.00,,---,0.00,VWS V12.07,2013-07-09 21:18:00,
2013-07-09 14:20:00,89.3,37.3,29.82,SSE,168,3.0,31.0,16,0.00,,---,0.00,VWS V12.07,2013-07-09 21:20:00,
2013-07-09 14:21:00,89.5,37.4,29.82,NW,309,3.0,31.0,16,0.00,,---,0.00,VWS V12.07,2013-07-09 21:21:00,
2013-07-09 14:22:00,89.7,37.6,29.82,SSW,198,0.0,31.0,16,0.00,,---,0.00,VWS V12.07,2013-07-09 21:22:00,
2013-07-09 14:24:00,89.9,39.3,29.82,NW,315,6.0,31.0,17,0.00,,---,0.00,VWS V12.07,2013-07-09 21:24:00,
2013-07-09 14:25:00,89.9,37.8,29.82,WNW,296,7.0,31.0,16,0.00,,---,0.00,VWS V12.07,2013-07-09 21:25:00,
2013-07-09 14:26:00,89.9,36.1,29.82,NW,325,5.0,31.0,15,0.00,,---,0.00,VWS V12.07,2013-07-09 21:26:00,
2013-07-09 14:27:00,89.9,37.8,29.82,NW,312,2.0,31.0,16,0.00,,---,0.00,VWS V12.07,2013-07-09 21:27:00,
2013-07-09 14:29:00,90.1,39.5,29.82,NW,312,0.0,31.0,17,0.00,,---,0.00,VWS V12.07,2013-07-09 21:29:00,
2013-07-09 14:30:00,90.3,39.6,29.82,NW,313,0.0,31.0,17,0.00,,---,0.00,VWS V12.07,2013-07-09 21:30:00,
2013-07-09 14:31:00,90.5,39.8,29.82,WNW,299,10.0,31.0,17,0.00,,---,0.00,VWS V12.07,2013-07-09 21:31:00,
2013-07-09 14:32:00,90.5,38.2,29.82,NW,320,2.0,31.0,16,0.00,,---,0.00,VWS V12.07,2013-07-09 21:32:00,
2013-07-09 14:35:00,90.5,39.8,29.82,WNW,285,1.0,31.0,17,0.00,,---,0.00,VWS V12.07,2013-07-09 21:35:00,
2013-07-09 14:36:00,90.5,38.2,29.82,WNW,287,0.0,31.0,16,0.00,,---,0.00,VWS V12.07,2013-07-09 21:36:00,
2013-07-09 14:38:00,90.1,37.9,29.82,South,182,6.0,31.0,16,0.00,,---,0.00,VWS V12.07,2013-07-09 21:38:00,
2013-07-09 14:40:00,89.9,39.3,29.82,West,271,4.0,31.0,17,0.00,,---,0.00,VWS V12.07,2013-07-09 21:40:00,
2013-07-09 14:41:00,89.9,39.3,29.82,South,189,6.0,31.0,17,0.00,,---,0.00,VWS V12.07,2013-07-09 21:41:00,
2013-07-09 14:42:00,89.9,39.3,29.82,South,182,0.0,31.0,17,0.00,,---,0.00,VWS V12.07,2013-07-09 21:42:00,
2013-07-09 14:44:00,89.9,37.8,29.82,South,184,5.0,31.0,16,0.00,,---,0.00,VWS V12.07,2013-07-09 21:44:00,
2013-07-09 14:45:00,90.1,37.9,29.81,West,280,5.0,31.0,16,0.00,,---,0.00,VWS V12.07,2013-07-09 21:45:00,
2013-07-09 14:46:00,90.1,37.9,29.81,NW,305,5.0,31.0,16,0.00,,---,0.00,VWS V12.07,2013-07-09 21:46:00,
2013-07-09 14:47:00,90.3,39.6,29.81,WNW,301,2.0,31.0,17,0.00,,---,0.00,VWS V12.07,2013-07-09 21:47:00,
2013-07-09 14:49:00,89.9,39.3,29.81,South,188,0.0,31.0,17,0.00,,---,0.00,VWS V12.07,2013-07-09 21:49:00,
2013-07-09 14:51:00,89.9,37.8,29.81,West,260,0.0,31.0,16,0.00,,---,0.00,VWS V12.07,2013-07-09 21:51:00,
2013-07-09 14:52:00,89.9,37.8,29.81,West,260,0.0,31.0,16,0.00,,---,0.00,VWS V12.07,2013-07-09 21:52:00,
2013-07-09 14:54:00,90.1,39.5,29.81,WSW,243,2.0,31.0,17,0.00,,---,0.00,VWS V12.07,2013-07-09 21:54:00,
2013-07-09 14:56:00,90.3,38.1,29.81,NNW,343,1.0,31.0,16,0.00,,---,0.00,VWS V12.07,2013-07-09 21:56:00,
2013-07-09 14:57:00,90.5,38.2,29.81,NNW,342,0.0,31.0,16,0.00,,---,0.00,VWS V12.07,2013-07-09 21:57:00,
2013-07-09 14:58:00,90.5,38.2,29.81,NNW,330,5.0,31.0,16,0.00,,---,0.00,VWS V12.07,2013-07-09 21:58:00,
2013-07-09 14:59:00,90.5,36.6,29.81,North,1,5.0,31.0,15,0.00,,---,0.00,VWS V12.07,2013-07-09 21:59:00,
2013-07-09 15:01:00,90.5,38.2,29.81,North,354,0.0,31.0,16,0.00,,---,0.00,VWS V12.07,2013-07-09 22:01:00,
2013-07-09 15:02:00,90.5,38.2,29.81,North,359,3.0,31.0,16,0.00,,---,0.00,VWS V12.07,2013-07-09 22:02:00,
2013-07-09 15:03:00,90.3,38.1,29.81,West,278,1.0,31.0,16,0.00,,---,0.00,VWS V12.07,2013-07-09 22:03:00,
2013-07-09 15:04:00,90.5,38.2,29.81,North,354,0.0,31.0,16,0.00,,---,0.00,VWS V12.07,2013-07-09 22:04:00,
2013-07-09 15:06:00,90.3,38.1,29.81,NW,319,3.0,31.0,16,0.00,,---,0.00,VWS V12.07,2013-07-09 22:06:00,
2013-07-09 15:07:00,90.3,36.4,29.81,NW,322,2.0,31.0,15,0.00,,---,0.00,VWS V12.07,2013-07-09 22:07:00,
2013-07-09 15:08:00,90.3,36.4,29.81,South,174,3.0,31.0,15,0.00,,---,0.00,VWS V12.07,2013-07-09 22:08:00,
2013-07-09 15:11:00,90.3,38.1,29.81,South,188,5.0,31.0,16,0.00,,---,0.00,VWS V12.07,2013-07-09 22:11:00,
2013-07-09 15:12:00,90.7,38.4,29.81,South,181,10.0,31.0,16,0.00,,---,0.00,VWS V12.07,2013-07-09 22:12:00,
2013-07-09 15:13:00,91.0,38.6,29.81,SW,222,2.0,31.0,16,0.00,,---,0.00,VWS V12.07,2013-07-09 22:13:00,
2013-07-09 15:16:00,91.0,38.6,29.80,SSW,193,4.0,31.0,16,0.00,,---,0.00,VWS V12.07,2013-07-09 22:16:00,
2013-07-09 15:17:00,91.0,38.6,29.80,SSW,213,7.0,31.0,16,0.00,,---,0.00,VWS V12.07,2013-07-09 22:17:00,
2013-07-09 15:18:00,91.0,38.6,29.80,SSW,203,7.0,31.0,16,0.00,,---,0.00,VWS V12.07,2013-07-09 22:18:00,
2013-07-09 15:19:00,90.7,38.4,29.80,SSW,213,0.0,31.0,16,0.00,,---,0.00,VWS V12.07,2013-07-09 22:19:00,
2013-07-09 15:21:00,90.5,39.8,29.80,South,175,11.0,31.0,17,0.00,,---,0.00,VWS V12.07,2013-07-09 22:21:00,
2013-07-09 15:22:00,90.1,39.5,29.80,South,184,7.0,31.0,17,0.00,,---,0.00,VWS V12.07,2013-07-09 22:22:00,
2013-07-09 15:23:00,90.3,38.1,29.80,SW,223,10.0,31.0,16,0.00,,---,0.00,VWS V12.07,2013-07-09 22:23:00,
2013-07-09 15:24:00,89.9,37.8,29.80,South,181,10.0,31.0,16,0.00,,---,0.00,VWS V12.07,2013-07-09 22:24:00,
2013-07-09 15:26:00,89.9,37.8,29.80,NNW,333,5.0,31.0,16,0.00,,---,0.00,VWS V12.07,2013-07-09 22:26:00,
2013-07-09 15:27:00,90.1,37.9,29.80,North,359,2.0,31.0,16,0.00,,---,0.00,VWS V12.07,2013-07-09 22:27:00,
2013-07-09 15:28:00,90.1,36.3,29.80,North,359,1.0,31.0,15,0.00,,---,0.00,VWS V12.07,2013-07-09 22:28:00,
2013-07-09 15:29:00,90.1,36.3,29.81,South,186,7.0,31.0,15,0.00,,---,0.00,VWS V12.07,2013-07-09 22:29:00,
2013-07-09 15:31:00,90.1,36.3,29.81,South,181,5.0,31.0,15,0.00,,---,0.00,VWS V12.07,2013-07-09 22:31:00,
2013-07-09 15:32:00,90.1,36.3,29.81,SSE,165,7.0,31.0,15,0.00,,---,0.00,VWS V12.07,2013-07-09 22:32:00,
2013-07-09 15:33:00,91.0,40.2,29.81,South,182,4.0,31.0,17,0.00,,---,0.00,VWS V12.07,2013-07-09 22:33:00,
2013-07-09 15:35:00,91.2,40.3,29.81,SSW,192,2.0,31.0,17,0.00,,---,0.00,VWS V12.07,2013-07-09 22:35:00,
2013-07-09 15:37:00,91.4,39.0,29.81,SSW,203,0.0,31.0,16,0.00,,---,0.00,VWS V12.07,2013-07-09 22:37:00,
2013-07-09 15:38:00,91.2,38.8,29.81,NNE,13,3.0,31.0,16,0.00,,---,0.00,VWS V12.07,2013-07-09 22:38:00,
2013-07-09 15:39:00,91.2,38.8,29.81,NNE,13,3.0,31.0,16,0.00,,---,0.00,VWS V12.07,2013-07-09 22:39:00,
2013-07-09 15:41:00,91.0,38.6,29.81,NW,305,3.0,31.0,16,0.00,,---,0.00,VWS V12.07,2013-07-09 22:41:00,
2013-07-09 15:42:00,90.7,39.9,29.81,North,353,0.0,31.0,17,0.00,,---,0.00,VWS V12.07,2013-07-09 22:42:00,
2013-07-09 15:43:00,90.7,39.9,29.81,North,353,0.0,31.0,17,0.00,,---,0.00,VWS V12.07,2013-07-09 22:43:00,
2013-07-09 15:44:00,90.7,38.4,29.81,North,353,0.0,31.0,16,0.00,,---,0.00,VWS V12.07,2013-07-09 22:44:00,
2013-07-09 15:45:00,90.7,38.4,29.80,North,350,1.0,31.0,16,0.00,,---,0.00,VWS V12.07,2013-07-09 22:45:00,
2013-07-09 15:46:00,90.7,38.4,29.80,NNW,347,0.0,31.0,16,0.00,,---,0.00,VWS V12.07,2013-07-09 22:46:00,
2013-07-09 15:48:00,90.7,38.4,29.80,NNW,347,1.0,31.0,16,0.00,,---,0.00,VWS V12.07,2013-07-09 22:48:00,
2013-07-09 15:49:00,90.7,38.4,29.80,NNW,347,1.0,31.0,16,0.00,,---,0.00,VWS V12.07,2013-07-09 22:49:00,
2013-07-09 15:50:00,90.1,37.9,29.80,South,184,0.0,31.0,16,0.00,,---,0.00,VWS V12.07,2013-07-09 22:50:00,
2013-07-09 15:52:00,90.1,37.9,29.80,South,189,7.0,31.0,16,0.00,,---,0.00,VWS V12.07,2013-07-09 22:52:00,
2013-07-09 15:53:00,90.1,37.9,29.80,South,189,7.0,31.0,16,0.00,,---,0.00,VWS V12.07,2013-07-09 22:53:00,
2013-07-09 15:54:00,90.3,38.1,29.80,SSE,150,0.0,31.0,16,0.00,,---,0.00,VWS V12.07,2013-07-09 22:54:00,
2013-07-09 15:55:00,90.5,38.2,29.80,SSE,152,2.0,31.0,16,0.00,,---,0.00,VWS V12.07,2013-07-09 22:55:00,
2013-07-09 15:57:00,90.7,39.9,29.80,NE,38,0.0,31.0,17,0.00,,---,0.00,VWS V12.07,2013-07-09 22:57:00,
2013-07-09 15:58:00,90.7,39.9,29.80,North,0,1.0,31.0,17,0.00,,---,0.00,VWS V12.07,2013-07-09 22:58:00,
2013-07-09 15:59:00,91.0,38.6,29.80,North,359,0.0,31.0,16,0.00,,---,0.00,VWS V12.07,2013-07-09 22:59:00,
2013-07-09 16:00:00,91.0,38.6,29.80,North,354,1.0,31.0,16,0.00,,---,0.00,VWS V12.07,2013-07-09 23:00:00,
2013-07-09 16:01:00,91.0,38.6,29.80,North,354,0.0,31.0,16,0.00,,---,0.00,VWS V12.07,2013-07-09 23:01:00,
2013-07-09 16:02:00,91.2,40.3,29.80,NNW,329,0.0,31.0,17,0.00,,---,0.00,VWS V12.07,2013-07-09 23:02:00,
2013-07-09 16:03:00,91.2,40.3,29.80,NNW,336,0.0,31.0,17,0.00,,---,0.00,VWS V12.07,2013-07-09 23:03:00,
2013-07-09 16:04:00,91.2,38.8,29.80,NNW,329,0.0,31.0,16,0.00,,---,0.00,VWS V12.07,2013-07-09 23:04:00,
2013-07-09 16:05:00,91.4,39.0,29.80,NNE,14,0.0,31.0,16,0.00,,---,0.00,VWS V12.07,2013-07-09 23:05:00,
2013-07-09 16:06:00,91.4,40.5,29.80,North,8,4.0,31.0,17,0.00,,---,0.00,VWS V12.07,2013-07-09 23:06:00,
2013-07-09 16:07:00,91.2,38.8,29.80,North,359,7.0,31.0,16,0.00,,---,0.00,VWS V12.07,2013-07-09 23:07:00,
2013-07-09 16:08:00,91.2,40.3,29.80,NNW,336,3.0,31.0,17,0.00,,---,0.00,VWS V12.07,2013-07-09 23:08:00,
2013-07-09 16:09:00,91.2,38.8,29.80,NW,308,2.0,31.0,16,0.00,,---,0.00,VWS V12.07,2013-07-09 23:09:00,
2013-07-09 16:10:00,91.2,40.3,29.80,NW,308,1.0,31.0,17,0.00,,---,0.00,VWS V12.07,2013-07-09 23:10:00,
2013-07-09 16:11:00,91.2,40.3,29.80,NW,306,0.0,31.0,17,0.00,,---,0.00,VWS V12.07,2013-07-09 23:11:00,
2013-07-09 16:13:00,91.4,39.0,29.80,NW,325,0.0,31.0,16,0.00,,---,0.00,VWS V12.07,2013-07-09 23:13:00,
2013-07-09 16:14:00,91.2,38.8,29.80,NW,318,5.0,31.0,16,0.00,,---,0.00,VWS V12.07,2013-07-09 23:14:00,
2013-07-09 16:16:00,91.2,38.8,29.80,SW,222,5.0,31.0,16,0.00,,---,0.00,VWS V12.07,2013-07-09 23:16:00,
2013-07-09 16:19:00,90.7,38.4,29.80,South,178,1.0,31.0,16,0.00,,---,0.00,VWS V12.07,2013-07-09 23:19:00,
2013-07-09 16:20:00,90.7,38.4,29.80,South,181,0.0,31.0,16,0.00,,---,0.00,VWS V12.07,2013-07-09 23:20:00,
2013-07-09 16:21:00,90.7,38.4,29.80,NW,326,5.0,31.0,16,0.00,,---,0.00,VWS V12.07,2013-07-09 23:21:00,
2013-07-09 16:22:00,90.7,38.4,29.80,North,349,5.0,31.0,16,0.00,,---,0.00,VWS V12.07,2013-07-09 23:22:00,
2013-07-09 16:24:00,90.7,39.9,29.80,WNW,301,6.0,31.0,17,0.00,,---,0.00,VWS V12.07,2013-07-09 23:24:00,
2013-07-09 16:25:00,90.7,39.9,29.80,WNW,298,1.0,31.0,17,0.00,,---,0.00,VWS V12.07,2013-07-09 23:25:00,
2013-07-09 16:27:00,91.0,40.2,29.80,WNW,299,0.0,31.0,17,0.00,,---,0.00,VWS V12.07,2013-07-09 23:27:00,
2013-07-09 16:29:00,91.0,40.2,29.80,WNW,302,6.0,31.0,17,0.00,,---,0.00,VWS V12.07,2013-07-09 23:29:00,
2013-07-09 16:30:00,91.0,40.2,29.79,WNW,294,5.0,31.0,17,0.00,,---,0.00,VWS V12.07,2013-07-09 23:30:00,
2013-07-09 16:32:00,91.0,40.2,29.79,NW,312,5.0,31.0,17,0.00,,---,0.00,VWS V12.07,2013-07-09 23:32:00,
2013-07-09 16:34:00,91.0,40.2,29.79,WNW,302,0.0,31.0,17,0.00,,---,0.00,VWS V12.07,2013-07-09 23:34:00,
2013-07-09 16:35:00,91.0,40.2,29.79,NW,304,5.0,31.0,17,0.00,,---,0.00,VWS V12.07,2013-07-09 23:35:00,
2013-07-09 16:37:00,91.0,40.2,29.79,WNW,301,0.0,31.0,17,0.00,,---,0.00,VWS V12.07,2013-07-09 23:37:00,
2013-07-09 16:39:00,91.2,38.8,29.79,NW,306,0.0,31.0,16,0.00,,---,0.00,VWS V12.07,2013-07-09 23:39:00,
2013-07-09 16:40:00,91.2,38.8,29.79,NW,306,0.0,31.0,16,0.00,,---,0.00,VWS V12.07,2013-07-09 23:40:00,
2013-07-09 16:42:00,91.2,38.8,29.79,NW,306,0.0,31.0,16,0.00,,---,0.00,VWS V12.07,2013-07-09 23:42:00,
2013-07-09 16:44:00,91.2,38.8,29.79,ESE,119,1.0,31.0,16,0.00,,---,0.00,VWS V12.07,2013-07-09 23:44:00,
2013-07-09 16:46:00,90.1,39.5,29.79,ESE,119,2.0,31.0,17,0.00,,---,0.00,VWS V12.07,2013-07-09 23:46:00,
2013-07-09 16:47:00,90.1,39.5,29.79,ESE,117,0.0,31.0,17,0.00,,---,0.00,VWS V12.07,2013-07-09 23:47:00,
2013-07-09 16:49:00,90.3,43.8,29.79,North,4,2.0,31.0,20,0.00,,---,0.00,VWS V12.07,2013-07-09 23:49:00,
2013-07-09 16:50:00,90.3,42.5,29.79,WNW,292,0.0,31.0,19,0.00,,---,0.00,VWS V12.07,2013-07-09 23:50:00,
2013-07-09 16:51:00,90.5,42.7,29.79,NW,319,0.0,31.0,19,0.00,,---,0.00,VWS V12.07,2013-07-09 23:51:00,
2013-07-09 16:52:00,90.5,42.7,29.79,NNW,332,2.0,31.0,19,0.00,,---,0.00,VWS V12.07,2013-07-09 23:52:00,
2013-07-09 16:55:00,91.0,43.1,29.79,NNW,332,2.0,31.0,19,0.00,,---,0.00,VWS V12.07,2013-07-09 23:55:00,
2013-07-09 16:57:00,91.0,43.1,29.79,North,352,0.0,31.0,19,0.00,,---,0.00,VWS V12.07,2013-07-09 23:57:00,
2013-07-09 16:58:00,91.0,43.1,29.79,North,350,0.0,31.0,19,0.00,,---,0.00,VWS V12.07,2013-07-09 23:58:00,
2013-07-09 17:00:00,91.2,43.2,29.78,North,10,5.0,31.0,19,0.00,,---,0.00,VWS V12.07,2013-07-10 00:00:00,
2013-07-09 17:03:00,91.2,43.2,29.78,North,6,0.0,31.0,19,0.00,,---,0.00,VWS V12.07,2013-07-10 00:03:00,
2013-07-09 17:05:00,91.2,43.2,29.78,North,0,0.0,31.0,19,0.00,,---,0.00,VWS V12.07,2013-07-10 00:05:00,
2013-07-09 17:06:00,91.2,43.2,29.78,North,0,2.0,31.0,19,0.00,,---,0.00,VWS V12.07,2013-07-10 00:06:00,
2013-07-09 17:08:00,91.2,43.2,29.78,NNW,343,3.0,31.0,19,0.00,,---,0.00,VWS V12.07,2013-07-10 00:08:00,
2013-07-09 17:09:00,91.2,43.2,29.78,NW,326,0.0,31.0,19,0.00,,---,0.00,VWS V12.07,2013-07-10 00:09:00,
2013-07-09 17:10:00,91.2,43.2,29.78,NW,326,1.0,31.0,19,0.00,,---,0.00,VWS V12.07,2013-07-10 00:10:00,
2013-07-09 17:11:00,91.4,43.4,29.78,NW,326,0.0,31.0,19,0.00,,---,0.00,VWS V12.07,2013-07-10 00:11:00,
2013-07-09 17:14:00,91.4,43.4,29.78,NW,322,3.0,31.0,19,0.00,,---,0.00,VWS V12.07,2013-07-10 00:14:00,
2013-07-09 17:15:00,91.4,42.0,29.78,North,6,3.0,31.0,18,0.00,,---,0.00,VWS V12.07,2013-07-10 00:15:00,
2013-07-09 17:17:00,91.6,43.5,29.78,North,8,0.0,31.0,19,0.00,,---,0.00,VWS V12.07,2013-07-10 00:17:00,
2013-07-09 17:19:00,91.6,43.5,29.78,NNW,333,0.0,31.0,19,0.00,,---,0.00,VWS V12.07,2013-07-10 00:19:00,
2013-07-09 17:20:00,91.6,43.5,29.78,NW,326,0.0,31.0,19,0.00,,---,0.00,VWS V12.07,2013-07-10 00:20:00,
2013-07-09 17:22:00,91.4,43.4,29.78,North,354,0.0,31.0,19,0.00,,---,0.00,VWS V12.07,2013-07-10 00:22:00,
2013-07-09 17:24:00,91.4,43.4,29.78,NNE,14,2.0,31.0,19,0.00,,---,0.00,VWS V12.07,2013-07-10 00:24:00,
2013-07-09 17:25:00,91.4,43.4,29.78,North,354,2.0,31.0,19,0.00,,---,0.00,VWS V12.07,2013-07-10 00:25:00,
2013-07-09 17:27:00,91.2,44.6,29.78,North,7,1.0,31.0,20,0.00,,---,0.00,VWS V12.07,2013-07-10 00:27:00,
2013-07-09 17:29:00,91.2,44.6,29.77,North,4,2.0,31.0,20,0.00,,---,0.00,VWS V12.07,2013-07-10 00:29:00,
2013-07-09 17:30:00,91.2,44.6,29.77,NW,319,0.0,31.0,20,0.00,,---,0.00,VWS V12.07,2013-07-10 00:30:00,
2013-07-09 17:31:00,91.2,44.6,29.77,NW,323,0.0,31.0,20,0.00,,---,0.00,VWS V12.07,2013-07-10 00:31:00,
2013-07-09 17:33:00,91.2,44.6,29.77,North,352,0.0,31.0,20,0.00,,---,0.00,VWS V12.07,2013-07-10 00:33:00,
2013-07-09 17:35:00,91.0,45.7,29.77,NNE,14,4.0,31.0,21,0.00,,---,0.00,VWS V12.07,2013-07-10 00:35:00,
2013-07-09 17:36:00,91.0,44.4,29.77,NW,323,2.0,31.0,20,0.00,,---,0.00,VWS V12.07,2013-07-10 00:36:00,
2013-07-09 17:38:00,91.0,44.4,29.77,NW,326,1.0,31.0,20,0.00,,---,0.00,VWS V12.07,2013-07-10 00:38:00,
2013-07-09 17:40:00,91.0,44.4,29.77,North,359,0.0,31.0,20,0.00,,---,0.00,VWS V12.07,2013-07-10 00:40:00,
2013-07-09 17:41:00,91.2,44.6,29.77,North,359,2.0,31.0,20,0.00,,---,0.00,VWS V12.07,2013-07-10 00:41:00,
2013-07-09 17:42:00,91.2,44.6,29.77,North,359,0.0,31.0,20,0.00,,---,0.00,VWS V12.07,2013-07-10 00:42:00,
2013-07-09 17:43:00,91.2,45.8,29.77,North,11,7.0,31.0,21,0.00,,---,0.00,VWS V12.07,2013-07-10 00:43:00,
2013-07-09 17:45:00,91.2,44.6,29.77,North,4,5.0,31.0,20,0.00,,---,0.00,VWS V12.07,2013-07-10 00:45:00,
2013-07-09 17:46:00,91.2,44.6,29.77,North,359,1.0,31.0,20,0.00,,---,0.00,VWS V12.07,2013-07-10 00:46:00,
2013-07-09 17:48:00,91.2,44.6,29.77,North,0,2.0,31.0,20,0.00,,---,0.00,VWS V12.07,2013-07-10 00:48:00,
2013-07-09 17:50:00,91.4,44.7,29.77,North,8,2.0,31.0,20,0.00,,---,0.00,VWS V12.07,2013-07-10 00:50:00,
2013-07-09 17:51:00,91.4,44.7,29.77,North,7,0.0,31.0,20,0.00,,---,0.00,VWS V12.07,2013-07-10 00:51:00,
2013-07-09 17:52:00,91.4,44.7,29.77,NNE,17,5.0,31.0,20,0.00,,---,0.00,VWS V12.07,2013-07-10 00:52:00,
2013-07-09 17:53:00,91.6,44.9,29.77,NNE,18,1.0,31.0,20,0.00,,---,0.00,VWS V12.07,2013-07-10 00:53:00,
2013-07-09 17:54:00,91.6,44.9,29.77,West,270,5.0,31.0,20,0.00,,---,0.00,VWS V12.07,2013-07-10 00:54:00,
2013-07-09 17:56:00,91.6,44.9,29.77,North,359,2.0,31.0,20,0.00,,---,0.00,VWS V12.07,2013-07-10 00:56:00,
2013-07-09 17:57:00,91.6,46.2,29.77,WNW,292,2.0,31.0,21,0.00,,---,0.00,VWS V12.07,2013-07-10 00:57:00,
2013-07-09 17:59:00,91.6,44.9,29.77,NNW,328,2.0,31.0,20,0.00,,---,0.00,VWS V12.07,2013-07-10 00:59:00,
2013-07-09 18:01:00,91.6,46.2,29.77,NW,318,0.0,31.0,21,0.00,,---,0.00,VWS V12.07,2013-07-10 01:01:00,
2013-07-09 18:02:00,91.6,46.2,29.77,NNW,332,2.0,31.0,21,0.00,,---,0.00,VWS V12.07,2013-07-10 01:02:00,
2013-07-09 18:03:00,91.6,46.2,29.77,North,0,5.0,31.0,21,0.00,,---,0.00,VWS V12.07,2013-07-10 01:03:00,
2013-07-09 18:04:00,91.4,46.0,29.77,NNE,17,2.0,31.0,21,0.00,,---,0.00,VWS V12.07,2013-07-10 01:04:00,
2013-07-09 18:05:00,91.4,46.0,29.77,NNW,329,5.0,31.0,21,0.00,,---,0.00,VWS V12.07,2013-07-10 01:05:00,
2013-07-09 18:06:00,91.4,47.2,29.77,NNE,21,2.0,31.0,22,0.00,,---,0.00,VWS V12.07,2013-07-10 01:06:00,
2013-07-09 18:07:00,91.4,47.2,29.77,North,359,2.0,31.0,22,0.00,,---,0.00,VWS V12.07,2013-07-10 01:07:00,
2013-07-09 18:08:00,91.4,46.0,29.77,North,10,2.0,31.0,21,0.00,,---,0.00,VWS V12.07,2013-07-10 01:08:00,
2013-07-09 18:10:00,91.2,45.8,29.77,NNE,20,5.0,31.0,21,0.00,,---,0.00,VWS V12.07,2013-07-10 01:10:00,
2013-07-09 18:12:00,91.2,47.1,29.77,NW,315,0.0,31.0,22,0.00,,---,0.00,VWS V12.07,2013-07-10 01:12:00,
2013-07-09 18:13:00,91.2,47.1,29.77,NW,325,0.0,31.0,22,0.00,,---,0.00,VWS V12.07,2013-07-10 01:13:00,
2013-07-09 18:15:00,91.2,47.1,29.76,NW,325,0.0,31.0,22,0.00,,---,0.00,VWS V12.07,2013-07-10 01:15:00,
2013-07-09 18:17:00,91.2,47.1,29.76,NNW,330,1.0,31.0,22,0.00,,---,0.00,VWS V12.07,2013-07-10 01:17:00,
2013-07-09 18:19:00,91.4,47.2,29.76,NNE,24,3.0,31.0,22,0.00,,---,0.00,VWS V12.07,2013-07-10 01:19:00,
2013-07-09 18:20:00,91.2,47.1,29.76,North,354,3.0,31.0,22,0.00,,---,0.00,VWS V12.07,2013-07-10 01:20:00,
2013-07-09 18:22:00,91.0,46.9,29.76,North,354,2.0,31.0,22,0.00,,---,0.00,VWS V12.07,2013-07-10 01:22:00,
2013-07-09 18:24:00,91.0,46.9,29.76,North,359,1.0,31.0,22,0.00,,---,0.00,VWS V12.07,2013-07-10 01:24:00,
2013-07-09 18:25:00,91.0,48.1,29.76,North,11,2.0,31.0,23,0.00,,---,0.00,VWS V12.07,2013-07-10 01:25:00,
2013-07-09 18:27:00,90.7,47.8,29.76,North,0,1.0,31.0,23,0.00,,---,0.00,VWS V12.07,2013-07-10 01:27:00,
2013-07-09 18:28:00,90.7,47.8,29.76,NNE,32,1.0,31.0,23,0.00,,---,0.00,VWS V12.07,2013-07-10 01:28:00,
2013-07-09 18:29:00,90.7,47.8,29.76,North,354,2.0,31.0,23,0.00,,---,0.00,VWS V12.07,2013-07-10 01:29:00,
2013-07-09 18:30:00,90.5,47.7,29.76,North,7,5.0,31.0,23,0.00,,---,0.00,VWS V12.07,2013-07-10 01:30:00,
2013-07-09 18:33:00,90.3,47.5,29.76,North,354,3.0,31.0,23,0.00,,---,0.00,VWS V12.07,2013-07-10 01:33:00,
2013-07-09 18:34:00,90.3,47.5,29.76,NNW,343,2.0,31.0,23,0.00,,---,0.00,VWS V12.07,2013-07-10 01:34:00,
2013-07-09 18:35:00,90.1,47.3,29.76,NNE,23,5.0,31.0,23,0.00,,---,0.00,VWS V12.07,2013-07-10 01:35:00,
2013-07-09 18:38:00,89.9,48.3,29.76,NNE,16,3.0,31.0,24,0.00,,---,0.00,VWS V12.07,2013-07-10 01:38:00,
2013-07-09 18:39:00,89.9,48.3,29.76,North,7,0.0,31.0,24,0.00,,---,0.00,VWS V12.07,2013-07-10 01:39:00,
2013-07-09 18:40:00,89.9,48.3,29.76,North,10,4.0,31.0,24,0.00,,---,0.00,VWS V12.07,2013-07-10 01:40:00,
2013-07-09 18:41:00,89.9,48.3,29.76,North,354,1.0,31.0,24,0.00,,---,0.00,VWS V12.07,2013-07-10 01:41:00,
2013-07-09 18:43:00,89.7,48.2,29.76,NW,325,0.0,31.0,24,0.00,,---,0.00,VWS V12.07,2013-07-10 01:43:00,
2013-07-09 18:44:00,89.5,49.1,29.76,NNE,24,7.0,31.0,25,0.00,,---,0.00,VWS V12.07,2013-07-10 01:44:00,
2013-07-09 18:45:00,89.5,49.1,29.76,NNE,16,3.0,31.0,25,0.00,,---,0.00,VWS V12.07,2013-07-10 01:45:00,
2013-07-09 18:46:00,89.3,47.8,29.76,North,354,0.0,31.0,24,0.00,,---,0.00,VWS V12.07,2013-07-10 01:46:00,
2013-07-09 18:48:00,89.3,48.9,29.76,North,3,5.0,31.0,25,0.00,,---,0.00,VWS V12.07,2013-07-10 01:48:00,
2013-07-09 18:49:00,89.0,48.7,29.76,North,0,5.0,31.0,25,0.00,,---,0.00,VWS V12.07,2013-07-10 01:49:00,
2013-07-09 18:51:00,88.8,49.5,29.76,North,359,1.0,31.0,26,0.00,,---,0.00,VWS V12.07,2013-07-10 01:51:00,
2013-07-09 18:52:00,88.8,48.5,29.76,NNE,20,2.0,31.0,25,0.00,,---,0.00,VWS V12.07,2013-07-10 01:52:00,
2013-07-09 18:53:00,88.4,49.2,29.76,WNW,292,2.0,31.0,26,0.00,,---,0.00,VWS V12.07,2013-07-10 01:53:00,
2013-07-09 18:54:00,88.4,49.2,29.76,WNW,301,0.0,31.0,26,0.00,,---,0.00,VWS V12.07,2013-07-10 01:54:00,
2013-07-09 18:55:00,88.4,49.2,29.76,NW,305,5.0,31.0,26,0.00,,---,0.00,VWS V12.07,2013-07-10 01:55:00,
2013-07-09 18:56:00,88.2,49.0,29.76,NW,322,0.0,31.0,26,0.00,,---,0.00,VWS V12.07,2013-07-10 01:56:00,
2013-07-09 18:57:00,88.2,49.0,29.76,WNW,298,5.0,31.0,26,0.00,,---,0.00,VWS V12.07,2013-07-10 01:57:00,
2013-07-09 18:59:00,88.0,47.8,29.76,NNW,347,0.0,31.0,25,0.00,,---,0.00,VWS V12.07,2013-07-10 01:59:00,
2013-07-09 19:00:00,87.8,49.7,29.78,NNE,17,0.0,31.0,27,0.00,,---,0.00,VWS V12.07,2013-07-10 02:00:00,
2013-07-09 19:01:00,87.8,48.7,29.78,NW,316,2.0,31.0,26,0.00,,---,0.00,VWS V12.07,2013-07-10 02:01:00,
2013-07-09 19:02:00,87.6,49.5,29.78,NW,323,0.0,31.0,27,0.00,,---,0.00,VWS V12.07,2013-07-10 02:02:00,
2013-07-09 19:04:00,87.6,49.5,29.78,NW,313,5.0,31.0,27,0.00,,---,0.00,VWS V12.07,2013-07-10 02:04:00,
2013-07-09 19:05:00,87.4,49.3,29.78,NNE,18,2.0,31.0,27,0.00,,---,0.00,VWS V12.07,2013-07-10 02:05:00,
2013-07-09 19:06:00,87.4,49.3,29.78,North,353,0.0,31.0,27,0.00,,---,0.00,VWS V12.07,2013-07-10 02:06:00,
2013-07-09 19:07:00,87.2,50.2,29.78,North,3,0.0,31.0,28,0.00,,---,0.00,VWS V12.07,2013-07-10 02:07:00,
2013-07-09 19:09:00,87.2,50.2,29.78,NW,306,0.0,31.0,28,0.00,,---,0.00,VWS V12.07,2013-07-10 02:09:00,
2013-07-09 19:11:00,87.2,49.2,29.78,North,7,3.0,31.0,27,0.00,,---,0.00,VWS V12.07,2013-07-10 02:11:00,
2013-07-09 19:12:00,87.2,49.2,29.78,North,10,1.0,31.0,27,0.00,,---,0.00,VWS V12.07,2013-07-10 02:12:00,
2013-07-09 19:15:00,87.0,49.0,29.75,NNE,16,2.0,31.0,27,0.00,,---,0.00,VWS V12.07,2013-07-10 02:15:00,
2013-07-09 19:16:00,86.5,49.6,29.75,NNE,13,0.0,31.0,28,0.00,,---,0.00,VWS V12.07,2013-07-10 02:16:00,
2013-07-09 19:17:00,86.5,49.6,29.75,NNE,13,2.0,31.0,28,0.00,,---,0.00,VWS V12.07,2013-07-10 02:17:00,
2013-07-09 19:20:00,86.3,49.4,29.75,North,349,2.0,31.0,28,0.00,,---,0.00,VWS V12.07,2013-07-10 02:20:00,
2013-07-09 19:21:00,85.9,49.0,29.75,North,7,0.0,31.0,28,0.00,,---,0.00,VWS V12.07,2013-07-10 02:21:00,
2013-07-09 19:22:00,85.9,49.0,29.75,North,7,2.0,31.0,28,0.00,,---,0.00,VWS V12.07,2013-07-10 02:22:00,
2013-07-09 19:23:00,85.7,48.9,29.75,NW,311,0.0,31.0,28,0.00,,---,0.00,VWS V12.07,2013-07-10 02:23:00,
2013-07-09 19:25:00,85.7,48.9,29.75,NW,313,0.0,31.0,28,0.00,,---,0.00,VWS V12.07,2013-07-10 02:25:00,
2013-07-09 19:27:00,85.7,48.9,29.75,NW,325,0.0,31.0,28,0.00,,---,0.00,VWS V12.07,2013-07-10 02:27:00,
2013-07-09 19:28:00,85.5,49.7,29.75,NW,326,1.0,31.0,29,0.00,,---,0.00,VWS V12.07,2013-07-10 02:28:00,
2013-07-09 19:30:00,85.5,48.7,29.75,NNW,332,0.0,31.0,28,0.00,,---,0.00,VWS V12.07,2013-07-10 02:30:00,
2013-07-09 19:32:00,85.5,50.6,29.75,NNW,347,2.0,31.0,30,0.00,,---,0.00,VWS V12.07,2013-07-10 02:32:00,
2013-07-09 19:34:00,85.3,49.5,29.75,NNW,340,0.0,31.0,29,0.00,,---,0.00,VWS V12.07,2013-07-10 02:34:00,
2013-07-09 19:35:00,85.1,50.2,29.75,NNW,342,0.0,31.0,30,0.00,,---,0.00,VWS V12.07,2013-07-10 02:35:00,
2013-07-09 19:36:00,85.1,50.2,29.75,NNW,343,0.0,31.0,30,0.00,,---,0.00,VWS V12.07,2013-07-10 02:36:00,
2013-07-09 19:37:00,84.7,49.9,29.75,North,354,1.0,31.0,30,0.00,,---,0.00,VWS V12.07,2013-07-10 02:37:00,
2013-07-09 19:38:00,84.7,49.9,29.75,North,354,0.0,31.0,30,0.00,,---,0.00,VWS V12.07,2013-07-10 02:38:00,
2013-07-09 19:39:00,84.7,50.8,29.75,NW,313,3.0,31.0,31,0.00,,---,0.00,VWS V12.07,2013-07-10 02:39:00,
2013-07-09 19:41:00,84.5,49.7,29.75,NE,51,0.0,31.0,30,0.00,,---,0.00,VWS V12.07,2013-07-10 02:41:00,
2013-07-09 19:42:00,84.3,50.4,29.75,NNW,333,0.0,31.0,31,0.00,,---,0.00,VWS V12.07,2013-07-10 02:42:00,
2013-07-09 19:43:00,84.3,50.4,29.75,NNW,333,0.0,31.0,31,0.00,,---,0.00,VWS V12.07,2013-07-10 02:43:00,
2013-07-09 19:44:00,84.3,50.4,29.76,NNW,333,0.0,31.0,31,0.00,,---,0.00,VWS V12.07,2013-07-10 02:44:00,
2013-07-09 19:46:00,84.1,50.2,29.76,NNW,336,2.0,31.0,31,0.00,,---,0.00,VWS V12.07,2013-07-10 02:46:00,
2013-07-09 19:48:00,84.0,50.2,29.76,NNW,336,0.0,31.0,31,0.00,,---,0.00,VWS V12.07,2013-07-10 02:48:00,
2013-07-09 19:50:00,83.8,50.0,29.76,NNW,336,2.0,31.0,31,0.00,,---,0.00,VWS V12.07,2013-07-10 02:50:00,
2013-07-09 19:51:00,83.6,49.8,29.76,NNW,336,0.0,31.0,31,0.00,,---,0.00,VWS V12.07,2013-07-10 02:51:00,
2013-07-09 19:52:00,83.6,49.8,29.76,NNW,336,1.0,31.0,31,0.00,,---,0.00,VWS V12.07,2013-07-10 02:52:00,
2013-07-09 19:53:00,83.4,50.5,29.76,NNW,335,2.0,31.0,32,0.00,,---,0.00,VWS V12.07,2013-07-10 02:53:00,
2013-07-09 19:54:00,83.4,50.5,29.76,NNW,336,0.0,31.0,32,0.00,,---,0.00,VWS V12.07,2013-07-10 02:54:00,
2013-07-09 19:55:00,83.2,50.3,29.76,NNW,336,0.0,31.0,32,0.00,,---,0.00,VWS V12.07,2013-07-10 02:55:00,
2013-07-09 19:57:00,83.0,50.1,29.76,NW,320,0.0,31.0,32,0.00,,---,0.00,VWS V12.07,2013-07-10 02:57:00,
2013-07-09 19:59:00,82.8,50.0,29.76,NW,320,0.0,31.0,32,0.00,,---,0.00,VWS V12.07,2013-07-10 02:59:00,
2013-07-09 20:00:00,82.8,50.8,29.78,NW,320,0.0,31.0,33,0.00,,---,0.00,VWS V12.07,2013-07-10 03:00:00,
2013-07-09 20:02:00,82.6,50.6,29.78,NW,322,3.0,31.0,33,0.00,,---,0.00,VWS V12.07,2013-07-10 03:02:00,
2013-07-09 20:03:00,82.4,50.4,29.78,NW,323,0.0,31.0,33,0.00,,---,0.00,VWS V12.07,2013-07-10 03:03:00,
2013-07-09 20:04:00,82.4,50.4,29.78,NW,323,0.0,31.0,33,0.00,,---,0.00,VWS V12.07,2013-07-10 03:04:00,
2013-07-09 20:05:00,82.4,50.4,29.78,NW,322,0.0,31.0,33,0.00,,---,0.00,VWS V12.07,2013-07-10 03:05:00,
2013-07-09 20:07:00,82.2,50.3,29.78,NW,322,0.0,31.0,33,0.00,,---,0.00,VWS V12.07,2013-07-10 03:07:00,
2013-07-09 20:08:00,82.2,50.3,29.78,NW,323,1.0,31.0,33,0.00,,---,0.00,VWS V12.07,2013-07-10 03:08:00,
2013-07-09 20:09:00,82.0,50.1,29.78,NW,323,0.0,31.0,33,0.00,,---,0.00,VWS V12.07,2013-07-10 03:09:00,
2013-07-09 20:10:00,82.0,50.1,29.78,NW,323,0.0,31.0,33,0.00,,---,0.00,VWS V12.07,2013-07-10 03:10:00,
2013-07-09 20:13:00,81.8,50.7,29.78,NW,323,0.0,31.0,34,0.00,,---,0.00,VWS V12.07,2013-07-10 03:13:00,
2013-07-09 20:14:00,81.8,50.7,29.78,NW,323,0.0,31.0,34,0.00,,---,0.00,VWS V12.07,2013-07-10 03:14:00,
2013-07-09 20:15:00,81.6,50.5,29.72,NW,323,0.0,31.0,34,0.00,,---,0.00,VWS V12.07,2013-07-10 03:15:00,
2013-07-09 20:16:00,81.6,50.5,29.72,NW,323,0.0,31.0,34,0.00,,---,0.00,VWS V12.07,2013-07-10 03:16:00,
2013-07-09 20:18:00,81.4,50.4,29.72,NW,323,0.0,31.0,34,0.00,,---,0.00,VWS V12.07,2013-07-10 03:18:00,
2013-07-09 20:20:00,81.2,50.2,29.72,NW,323,0.0,31.0,34,0.00,,---,0.00,VWS V12.07,2013-07-10 03:20:00,
2013-07-09 20:21:00,81.2,50.2,29.72,NW,323,0.0,31.0,34,0.00,,---,0.00,VWS V12.07,2013-07-10 03:21:00,
2013-07-09 20:23:00,81.1,50.9,29.72,NW,323,0.0,31.0,35,0.00,,---,0.00,VWS V12.07,2013-07-10 03:23:00,
2013-07-09 20:25:00,80.9,50.7,29.72,NW,323,0.0,31.0,35,0.00,,---,0.00,VWS V12.07,2013-07-10 03:25:00,
2013-07-09 20:26:00,80.7,51.3,29.72,NW,323,0.0,31.0,36,0.00,,---,0.00,VWS V12.07,2013-07-10 03:26:00,
2013-07-09 20:28:00,80.3,50.2,29.72,NW,323,0.0,31.0,35,0.00,,---,0.00,VWS V12.07,2013-07-10 03:28:00,
2013-07-09 20:30:00,80.1,50.8,29.74,NW,323,0.0,31.0,36,0.00,,---,0.00,VWS V12.07,2013-07-10 03:30:00,
2013-07-09 20:31:00,79.9,50.6,29.74,NW,323,0.0,31.0,36,0.00,,---,0.00,VWS V12.07,2013-07-10 03:31:00,
2013-07-09 20:32:00,79.9,50.6,29.74,NW,323,0.0,31.0,36,0.00,,---,0.00,VWS V12.07,2013-07-10 03:32:00,
2013-07-09 20:34:00,79.8,51.2,29.74,NW,323,0.0,31.0,37,0.00,,---,0.00,VWS V12.07,2013-07-10 03:34:00,
2013-07-09 20:35:00,79.6,51.1,29.74,NW,323,0.0,31.0,37,0.00,,---,0.00,VWS V12.07,2013-07-10 03:35:00,
2013-07-09 20:36:00,79.4,50.9,29.74,NW,323,0.0,31.0,37,0.00,,---,0.00,VWS V12.07,2013-07-10 03:36:00,
2013-07-09 20:38:00,79.0,50.5,29.74,NW,323,0.0,31.0,37,0.00,,---,0.00,VWS V12.07,2013-07-10 03:38:00,
2013-07-09 20:39:00,79.0,50.5,29.74,NW,323,0.0,31.0,37,0.00,,---,0.00,VWS V12.07,2013-07-10 03:39:00,
2013-07-09 20:40:00,78.8,51.1,29.74,NW,323,0.0,31.0,38,0.00,,---,0.00,VWS V12.07,2013-07-10 03:40:00,
2013-07-09 20:41:00,78.8,51.1,29.74,NW,323,0.0,31.0,38,0.00,,---,0.00,VWS V12.07,2013-07-10 03:41:00,
2013-07-09 20:43:00,78.1,50.5,29.74,NW,323,0.0,31.0,38,0.00,,---,0.00,VWS V12.07,2013-07-10 03:43:00,
2013-07-09 20:44:00,78.1,50.5,29.74,NW,323,0.0,31.0,38,0.00,,---,0.00,VWS V12.07,2013-07-10 03:44:00,
2013-07-09 20:46:00,77.9,50.3,29.75,NW,323,0.0,31.0,38,0.00,,---,0.00,VWS V12.07,2013-07-10 03:46:00,
2013-07-09 20:47:00,77.7,50.1,29.75,NW,323,0.0,31.0,38,0.00,,---,0.00,VWS V12.07,2013-07-10 03:47:00,
2013-07-09 20:48:00,77.7,50.8,29.75,NW,323,0.0,31.0,39,0.00,,---,0.00,VWS V12.07,2013-07-10 03:48:00,
2013-07-09 20:49:00,77.6,50.7,29.75,NW,323,0.0,31.0,39,0.00,,---,0.00,VWS V12.07,2013-07-10 03:49:00,
2013-07-09 20:51:00,77.4,50.5,29.75,NW,323,0.0,31.0,39,0.00,,---,0.00,VWS V12.07,2013-07-10 03:51:00,
2013-07-09 20:52:00,77.4,49.8,29.75,NW,323,0.0,31.0,38,0.00,,---,0.00,VWS V12.07,2013-07-10 03:52:00,
2013-07-09 20:54:00,77.2,51.0,29.75,NW,323,0.0,31.0,40,0.00,,---,0.00,VWS V12.07,2013-07-10 03:54:00,
2013-07-09 20:56:00,77.0,50.9,29.75,NW,323,0.0,31.0,40,0.00,,---,0.00,VWS V12.07,2013-07-10 03:56:00,
2013-07-09 20:57:00,76.8,50.7,29.75,NW,323,0.0,31.0,40,0.00,,---,0.00,VWS V12.07,2013-07-10 03:57:00,
2013-07-09 20:59:00,76.5,50.4,29.75,NW,323,0.0,31.0,40,0.00,,---,0.00,VWS V12.07,2013-07-10 03:59:00,
2013-07-09 21:00:00,76.3,50.2,29.76,NW,323,0.0,31.0,40,0.00,,---,0.00,VWS V12.07,2013-07-10 04:00:00,
2013-07-09 21:01:00,76.3,50.2,29.76,NW,323,0.0,31.0,40,0.00,,---,0.00,VWS V12.07,2013-07-10 04:01:00,
2013-07-09 21:02:00,76.0,50.0,29.76,NW,323,0.0,31.0,40,0.00,,---,0.00,VWS V12.07,2013-07-10 04:02:00,
2013-07-09 21:06:00,75.4,50.1,29.76,NW,323,0.0,31.0,41,0.00,,---,0.00,VWS V12.07,2013-07-10 04:06:00,
2013-07-09 21:07:00,75.1,49.8,29.76,NW,323,0.0,31.0,41,0.00,,---,0.00,VWS V12.07,2013-07-10 04:07:00,
2013-07-09 21:11:00,74.2,49.7,29.76,NW,323,0.0,31.0,42,0.00,,---,0.00,VWS V12.07,2013-07-10 04:11:00,
2013-07-09 21:12:00,74.2,49.7,29.76,NW,323,0.0,31.0,42,0.00,,---,0.00,VWS V12.07,2013-07-10 04:12:00,
2013-07-09 21:16:00,73.7,49.8,29.75,NW,323,0.0,31.0,43,0.00,,---,0.00,VWS V12.07,2013-07-10 04:16:00,
2013-07-09 21:17:00,73.5,49.7,29.75,NW,323,0.0,31.0,43,0.00,,---,0.00,VWS V12.07,2013-07-10 04:17:00,
2013-07-09 21:21:00,73.0,49.2,29.75,NW,323,0.0,31.0,43,0.00,,---,0.00,VWS V12.07,2013-07-10 04:21:00,
2013-07-09 21:22:00,72.8,49.0,29.75,NW,323,0.0,31.0,43,0.00,,---,0.00,VWS V12.07,2013-07-10 04:22:00,
2013-07-09 21:26:00,72.1,49.0,29.75,NW,323,0.0,31.0,44,0.00,,---,0.00,VWS V12.07,2013-07-10 04:26:00,
2013-07-09 21:27:00,72.0,48.9,29.75,NW,323,0.0,31.0,44,0.00,,---,0.00,VWS V12.07,2013-07-10 04:27:00,
2013-07-09 21:28:00,72.0,48.9,29.75,NW,323,0.0,31.0,44,0.00,,---,0.00,VWS V12.07,2013-07-10 04:28:00,
2013-07-09 21:31:00,71.5,49.1,29.77,NW,323,0.0,31.0,45,0.00,,---,0.00,VWS V12.07,2013-07-10 04:31:00,
2013-07-09 21:32:00,71.5,49.1,29.77,NW,323,0.0,31.0,45,0.00,,---,0.00,VWS V12.07,2013-07-10 04:32:00,
2013-07-09 21:33:00,71.3,48.9,29.77,NW,323,0.0,31.0,45,0.00,,---,0.00,VWS V12.07,2013-07-10 04:33:00,
2013-07-09 21:36:00,70.4,49.2,29.77,NW,323,0.0,31.0,47,0.00,,---,0.00,VWS V12.07,2013-07-10 04:36:00,
2013-07-09 21:37:00,70.3,49.1,29.77,NW,323,0.0,31.0,47,0.00,,---,0.00,VWS V12.07,2013-07-10 04:37:00,
2013-07-09 21:38:00,70.1,49.0,29.77,NW,323,0.0,31.0,47,0.00,,---,0.00,VWS V12.07,2013-07-10 04:38:00,
2013-07-09 21:39:00,69.8,49.2,29.77,NW,323,0.0,31.0,48,0.00,,---,0.00,VWS V12.07,2013-07-10 04:39:00,
2013-07-09 21:42:00,69.3,48.8,29.77,NW,323,0.0,31.0,48,0.00,,---,0.00,VWS V12.07,2013-07-10 04:42:00,
2013-07-09 21:43:00,69.3,48.8,29.77,NW,323,0.0,31.0,48,0.00,,---,0.00,VWS V12.07,2013-07-10 04:43:00,
2013-07-09 21:44:00,69.1,49.2,29.77,NW,323,0.0,31.0,49,0.00,,---,0.00,VWS V12.07,2013-07-10 04:44:00,
2013-07-09 21:45:00,68.9,48.4,29.79,NW,323,0.0,31.0,48,0.00,,---,0.00,VWS V12.07,2013-07-10 04:45:00,
2013-07-09 21:47:00,68.6,48.2,29.79,NW,323,0.0,31.0,48,0.00,,---,0.00,VWS V12.07,2013-07-10 04:47:00,
2013-07-09 21:48:00,68.6,48.2,29.79,NW,323,0.0,31.0,48,0.00,,---,0.00,VWS V12.07,2013-07-10 04:48:00,
2013-07-09 21:49:00,68.6,49.2,29.79,NW,323,0.0,31.0,50,0.00,,---,0.00,VWS V12.07,2013-07-10 04:49:00,
2013-07-09 21:50:00,68.6,48.7,29.79,NW,323,0.0,31.0,49,0.00,,---,0.00,VWS V12.07,2013-07-10 04:50:00,
2013-07-09 21:52:00,68.4,48.5,29.79,NW,323,0.0,31.0,49,0.00,,---,0.00,VWS V12.07,2013-07-10 04:52:00,
2013-07-09 21:53:00,68.4,48.5,29.79,NW,323,0.0,31.0,49,0.00,,---,0.00,VWS V12.07,2013-07-10 04:53:00,
2013-07-09 21:54:00,68.1,48.8,29.79,NW,323,0.0,31.0,50,0.00,,---,0.00,VWS V12.07,2013-07-10 04:54:00,
2013-07-09 21:55:00,67.9,48.6,29.79,NW,323,0.0,31.0,50,0.00,,---,0.00,VWS V12.07,2013-07-10 04:55:00,
2013-07-09 21:58:00,67.6,48.3,29.79,NW,323,0.0,31.0,50,0.00,,---,0.00,VWS V12.07,2013-07-10 04:58:00,
2013-07-09 22:00:00,67.4,47.6,29.80,NW,323,0.0,31.0,49,0.00,,---,0.00,VWS V12.07,2013-07-10 05:00:00,
2013-07-09 22:03:00,67.1,47.9,29.80,NW,323,0.0,31.0,50,0.00,,---,0.00,VWS V12.07,2013-07-10 05:03:00,
2013-07-09 22:05:00,67.1,47.9,29.80,NW,323,0.0,31.0,50,0.00,,---,0.00,VWS V12.07,2013-07-10 05:05:00,
2013-07-09 22:08:00,66.8,48.1,29.80,NW,323,0.0,31.0,51,0.00,,---,0.00,VWS V12.07,2013-07-10 05:08:00,
2013-07-09 22:10:00,66.6,48.4,29.80,NW,323,1.0,31.0,52,0.00,,---,0.00,VWS V12.07,2013-07-10 05:10:00,
2013-07-09 22:11:00,66.3,48.2,29.80,NW,323,0.0,31.0,52,0.00,,---,0.00,VWS V12.07,2013-07-10 05:11:00,
2013-07-09 22:13:00,65.8,47.7,29.80,NW,323,0.0,31.0,52,0.00,,---,0.00,VWS V12.07,2013-07-10 05:13:00,
2013-07-09 22:15:00,65.5,47.9,29.79,NW,323,1.0,31.0,53,0.00,,---,0.00,VWS V12.07,2013-07-10 05:15:00,
2013-07-09 22:16:00,65.3,47.8,29.79,NW,323,0.0,31.0,53,0.00,,---,0.00,VWS V12.07,2013-07-10 05:16:00,
2013-07-09 22:18:00,65.2,48.2,29.79,NW,323,0.0,31.0,54,0.00,,---,0.00,VWS V12.07,2013-07-10 05:18:00,
2013-07-09 22:20:00,65.0,47.5,29.79,NW,323,0.0,31.0,53,0.00,,---,0.00,VWS V12.07,2013-07-10 05:20:00,
2013-07-09 22:21:00,64.8,47.3,29.79,NW,323,0.0,31.0,53,0.00,,---,0.00,VWS V12.07,2013-07-10 05:21:00,
2013-07-09 22:23:00,64.7,48.2,29.79,NW,323,2.0,31.0,55,0.00,,---,0.00,VWS V12.07,2013-07-10 05:23:00,
2013-07-09 22:24:00,64.7,48.2,29.79,NW,323,0.0,31.0,55,0.00,,---,0.00,VWS V12.07,2013-07-10 05:24:00,
2013-07-09 22:25:00,64.5,47.5,29.79,NW,323,0.0,31.0,54,0.00,,---,0.00,VWS V12.07,2013-07-10 05:25:00,
2013-07-09 22:26:00,64.3,47.8,29.79,NW,323,0.0,31.0,55,0.00,,---,0.00,VWS V12.07,2013-07-10 05:26:00,
2013-07-09 22:29:00,64.2,47.7,29.80,NW,323,0.0,31.0,55,0.00,,---,0.00,VWS V12.07,2013-07-10 05:29:00,
2013-07-09 22:30:00,64.0,47.5,29.80,NW,323,0.0,31.0,55,0.00,,---,0.00,VWS V12.07,2013-07-10 05:30:00,
2013-07-09 22:31:00,63.9,47.4,29.80,NW,323,0.0,31.0,55,0.00,,---,0.00,VWS V12.07,2013-07-10 05:31:00,
2013-07-09 22:35:00,63.7,46.3,29.80,NW,323,0.0,31.0,53,0.00,,---,0.00,VWS V12.07,2013-07-10 05:35:00,
2013-07-09 22:37:00,63.7,46.8,29.80,NW,323,0.0,31.0,54,0.00,,---,0.00,VWS V12.07,2013-07-10 05:37:00,
2013-07-09 22:40:00,63.5,46.6,29.80,NW,323,0.0,31.0,54,0.00,,---,0.00,VWS V12.07,2013-07-10 05:40:00,
2013-07-09 22:41:00,63.5,46.6,29.80,NW,323,0.0,31.0,54,0.00,,---,0.00,VWS V12.07,2013-07-10 05:41:00,
2013-07-09 22:43:00,63.4,46.5,29.80,NW,323,0.0,31.0,54,0.00,,---,0.00,VWS V12.07,2013-07-10 05:43:00,
2013-07-09 22:45:00,63.2,44.3,29.82,NW,323,0.0,31.0,50,0.00,,---,0.00,VWS V12.07,2013-07-10 05:45:00,
2013-07-09 22:46:00,63.2,44.8,29.82,NW,323,0.0,31.0,51,0.00,,---,0.00,VWS V12.07,2013-07-10 05:46:00,
2013-07-09 22:47:00,63.1,44.7,29.82,NW,323,0.0,31.0,51,0.00,,---,0.00,VWS V12.07,2013-07-10 05:47:00,
2013-07-09 22:48:00,63.1,44.7,29.82,NW,323,0.0,31.0,51,0.00,,---,0.00,VWS V12.07,2013-07-10 05:48:00,
2013-07-09 22:50:00,62.9,44.5,29.82,NW,323,0.0,31.0,51,0.00,,---,0.00,VWS V12.07,2013-07-10 05:50:00,
2013-07-09 22:51:00,62.9,45.0,29.82,NW,323,0.0,31.0,52,0.00,,---,0.00,VWS V12.07,2013-07-10 05:51:00,
2013-07-09 22:52:00,62.7,44.3,29.82,NW,323,0.0,31.0,51,0.00,,---,0.00,VWS V12.07,2013-07-10 05:52:00,
2013-07-09 22:53:00,62.6,44.2,29.82,NW,323,0.0,31.0,51,0.00,,---,0.00,VWS V12.07,2013-07-10 05:53:00,
2013-07-09 22:55:00,62.6,44.2,29.82,NW,323,0.0,31.0,51,0.00,,---,0.00,VWS V12.07,2013-07-10 05:55:00,
2013-07-09 22:57:00,62.4,44.6,29.82,NW,323,0.0,31.0,52,0.00,,---,0.00,VWS V12.07,2013-07-10 05:57:00,
2013-07-09 22:58:00,62.4,44.6,29.82,NW,323,0.0,31.0,52,0.00,,---,0.00,VWS V12.07,2013-07-10 05:58:00,
2013-07-09 23:00:00,62.3,44.0,29.82,NW,323,0.0,31.0,51,0.00,,---,0.00,VWS V12.07,2013-07-10 06:00:00,
2013-07-09 23:02:00,62.3,44.0,29.82,NW,323,0.0,31.0,51,0.00,,---,0.00,VWS V12.07,2013-07-10 06:02:00,
2013-07-09 23:03:00,62.3,44.5,29.82,NW,323,0.0,31.0,52,0.00,,---,0.00,VWS V12.07,2013-07-10 06:03:00,
2013-07-09 23:04:00,62.1,44.3,29.82,NW,323,0.0,31.0,52,0.00,,---,0.00,VWS V12.07,2013-07-10 06:04:00,
2013-07-09 23:05:00,62.1,44.3,29.82,NW,323,0.0,31.0,52,0.00,,---,0.00,VWS V12.07,2013-07-10 06:05:00,
2013-07-09 23:07:00,62.1,44.3,29.82,NW,323,0.0,31.0,52,0.00,,---,0.00,VWS V12.07,2013-07-10 06:07:00,
2013-07-09 23:08:00,62.1,44.3,29.82,NW,323,0.0,31.0,52,0.00,,---,0.00,VWS V12.07,2013-07-10 06:08:00,
2013-07-09 23:09:00,62.0,44.2,29.82,NW,323,0.0,31.0,52,0.00,,---,0.00,VWS V12.07,2013-07-10 06:09:00,
2013-07-09 23:10:00,62.0,44.2,29.82,NW,323,0.0,31.0,52,0.00,,---,0.00,VWS V12.07,2013-07-10 06:10:00,
2013-07-09 23:13:00,61.5,44.2,29.82,West,270,0.0,31.0,53,0.00,,---,0.00,VWS V12.07,2013-07-10 06:13:00,
2013-07-09 23:14:00,61.3,43.5,29.80,NW,323,0.0,31.0,52,0.00,,---,0.00,VWS V12.07,2013-07-10 06:14:00,
2013-07-09 23:15:00,61.2,43.5,29.80,NW,323,0.0,31.0,52,0.00,,---,0.00,VWS V12.07,2013-07-10 06:15:00,
2013-07-09 23:18:00,61.0,43.3,29.80,NW,323,0.0,31.0,52,0.00,,---,0.00,VWS V12.07,2013-07-10 06:18:00,
2013-07-09 23:19:00,60.9,43.2,29.80,NW,323,0.0,31.0,52,0.00,,---,0.00,VWS V12.07,2013-07-10 06:19:00,
2013-07-09 23:21:00,60.9,43.7,29.80,NW,323,0.0,31.0,53,0.00,,---,0.00,VWS V12.07,2013-07-10 06:21:00,
2013-07-09 23:24:00,60.5,42.8,29.80,NW,323,0.0,31.0,52,0.00,,---,0.00,VWS V12.07,2013-07-10 06:24:00,
2013-07-09 23:25:00,60.5,42.8,29.80,NW,323,0.0,31.0,52,0.00,,---,0.00,VWS V12.07,2013-07-10 06:25:00,
2013-07-09 23:28:00,60.4,43.2,29.80,NW,323,0.0,31.0,53,0.00,,---,0.00,VWS V12.07,2013-07-10 06:28:00,
2013-07-09 23:29:00,60.4,43.2,29.80,NW,323,0.0,31.0,53,0.00,,---,0.00,VWS V12.07,2013-07-10 06:29:00,
2013-07-09 23:30:00,60.4,43.7,29.80,NW,323,0.0,31.0,54,0.00,,---,0.00,VWS V12.07,2013-07-10 06:30:00,
2013-07-09 23:31:00,60.2,43.0,29.80,NW,323,0.0,31.0,53,0.00,,---,0.00,VWS V12.07,2013-07-10 06:31:00,
2013-07-09 23:33:00,60.1,42.9,29.80,NW,323,0.0,31.0,53,0.00,,---,0.00,VWS V12.07,2013-07-10 06:33:00,
2013-07-09 23:34:00,59.9,38.5,29.80,NW,323,0.0,31.0,45,0.00,,---,0.00,VWS V12.07,2013-07-10 06:34:00,
2013-07-09 23:36:00,59.6,38.8,29.80,NW,323,0.0,31.0,46,0.00,,---,0.00,VWS V12.07,2013-07-10 06:36:00,
2013-07-09 23:37:00,59.6,38.8,29.80,NW,323,0.0,31.0,46,0.00,,---,0.00,VWS V12.07,2013-07-10 06:37:00,
2013-07-09 23:38:00,59.6,38.8,29.80,NW,323,0.0,31.0,46,0.00,,---,0.00,VWS V12.07,2013-07-10 06:38:00,
2013-07-09 23:39:00,59.6,38.8,29.80,NW,323,0.0,31.0,46,0.00,,---,0.00,VWS V12.07,2013-07-10 06:39:00,
2013-07-09 23:40:00,59.6,38.8,29.80,NW,323,0.0,31.0,46,0.00,,---,0.00,VWS V12.07,2013-07-10 06:40:00,
2013-07-09 23:41:00,59.6,38.8,29.80,NW,323,0.0,31.0,46,0.00,,---,0.00,VWS V12.07,2013-07-10 06:41:00,
2013-07-09 23:42:00,59.6,38.8,29.80,NW,323,0.0,31.0,46,0.00,,---,0.00,VWS V12.07,2013-07-10 06:42:00,
2013-07-09 23:43:00,59.5,38.7,29.80,NW,323,1.0,31.0,46,0.00,,---,0.00,VWS V12.07,2013-07-10 06:43:00,
2013-07-09 23:45:00,59.3,38.0,29.80,NW,323,0.0,31.0,45,0.00,,---,0.00,VWS V12.07,2013-07-10 06:45:00,
2013-07-09 23:47:00,59.2,37.9,29.80,NW,323,0.0,31.0,45,0.00,,---,0.00,VWS V12.07,2013-07-10 06:47:00,
2013-07-09 23:48:00,59.2,37.9,29.80,NW,323,1.0,31.0,45,0.00,,---,0.00,VWS V12.07,2013-07-10 06:48:00,
2013-07-09 23:50:00,59.0,38.3,29.80,NW,323,2.0,31.0,46,0.00,,---,0.00,VWS V12.07,2013-07-10 06:50:00,
2013-07-09 23:51:00,58.9,38.2,29.80,NW,323,0.0,31.0,46,0.00,,---,0.00,VWS V12.07,2013-07-10 06:51:00,
2013-07-09 23:52:00,58.9,38.2,29.80,NW,323,0.0,31.0,46,0.00,,---,0.00,VWS V12.07,2013-07-10 06:52:00,
2013-07-09 23:54:00,58.7,38.0,29.80,NW,323,0.0,31.0,46,0.00,,---,0.00,VWS V12.07,2013-07-10 06:54:00,
2013-07-09 23:55:00,58.6,37.9,29.80,NW,323,0.0,31.0,46,0.00,,---,0.00,VWS V12.07,2013-07-10 06:55:00,
2013-07-09 23:56:00,58.4,37.7,29.80,NW,323,0.0,31.0,46,0.00,,---,0.00,VWS V12.07,2013-07-10 06:56:00,
2013-07-09 23:57:00,58.4,37.7,29.80,NW,323,0.0,31.0,46,0.00,,---,0.00,VWS V12.07,2013-07-10 06:57:00,
2013-07-09 23:58:00,58.3,37.6,29.80,NW,323,0.0,31.0,46,0.00,,---,0.00,VWS V12.07,2013-07-10 06:58:00,
2013-07-09 23:59:00,58.3,37.6,29.80,NW,323,0.0,31.0,46,0.00,,---,0.00,VWS V12.07,2013-07-10 06:59:00,